| time (UTC) | temp C | wind direction | speed KPH | gust KPH | rain 1hr cm | rain 24hr cm | rain mn cm | humidity % | barometer mb |
| 20260505195005 | 27 | 184 | 17.7 | 38.6 | 0.00 | 0.00 | 0.00 | 38 | 1006.3 |
| 20260505194905 | 27 | 198 | 16.1 | 38.6 | 0.00 | 0.00 | 0.00 | 37 | 1006.2 |
| 20260505194822 | 28 | 161 | 16.1 | 38.6 | 0.00 | 0.00 | 0.00 | 38 | 1006.3 |
| 20260505194815 | 28 | 155 | 16.1 | 38.6 | 0.00 | 0.00 | 0.00 | 37 | 1006.2 |
| 20260505194552 | 28 | 167 | 16.1 | 38.6 | 0.00 | 0.00 | 0.00 | 38 | 1006.2 |
| 20260505194453 | 28 | 192 | 17.7 | 38.6 | 0.00 | 0.00 | 0.00 | 38 | 1006.3 |
| 20260505194348 | 28 | 177 | 17.7 | 38.6 | 0.00 | 0.00 | 0.00 | 38 | 1006.3 |
| 20260505194247 | 27 | 174 | 17.7 | 38.6 | 0.00 | 0.00 | 0.00 | 38 | 1006.4 |
| 20260505194141 | 27 | 179 | 16.1 | 38.6 | 0.00 | 0.00 | 0.00 | 38 | 1006.3 |
| 20260505194041 | 27 | 172 | 17.7 | 38.6 | 0.00 | 0.00 | 0.00 | 40 | 1006.3 |
| 20260505193936 | 27 | 175 | 19.3 | 53.1 | 0.00 | 0.00 | 0.00 | 38 | 1006.3 |
| 20260505193853 | 27 | 213 | 19.3 | 53.1 | 0.00 | 0.00 | 0.00 | 39 | 1006.3 |
| 20260505193845 | 27 | 202 | 19.3 | 53.1 | 0.00 | 0.00 | 0.00 | 38 | 1006.3 |
| 20260505193646 | 27 | 168 | 16.1 | 53.1 | 0.00 | 0.00 | 0.00 | 38 | 1006.3 |
| 20260505193639 | 27 | 178 | 17.7 | 53.1 | 0.00 | 0.00 | 0.00 | 39 | 1006.3 |
| 20260505193423 | 27 | 182 | 16.1 | 53.1 | 0.00 | 0.00 | 0.00 | 39 | 1006.3 |
| 20260505193318 | 27 | 197 | 16.1 | 53.1 | 0.00 | 0.00 | 0.00 | 39 | 1006.4 |
| 20260505193217 | 27 | 187 | 16.1 | 53.1 | 0.00 | 0.00 | 0.00 | 38 | 1006.3 |
| 20260505193141 | 27 | 201 | 17.7 | 37.0 | 0.00 | 0.00 | 0.00 | 40 | 1006.6 |
| 20260505193136 | 27 | 125 | 17.7 | 51.5 | 0.00 | 0.00 | 0.00 | 39 | 1006.6 |
| 20260505193127 | 27 | 178 | 16.1 | 53.1 | 0.00 | 0.00 | 0.00 | 38 | 1006.3 |
| 20260505192956 | 27 | 167 | 16.1 | 37.0 | 0.00 | 0.00 | 0.00 | 39 | 1006.6 |
| 20260505192835 | 27 | 190 | 17.7 | 37.0 | 0.00 | 0.00 | 0.00 | 38 | 1006.4 |
| 20260505192715 | 27 | 182 | 17.7 | 37.0 | 0.00 | 0.00 | 0.00 | 38 | 1006.4 |
| 20260505192454 | 27 | 173 | 19.3 | 37.0 | 0.00 | 0.00 | 0.00 | 39 | 1006.4 |
| 20260505192353 | 27 | 153 | 19.3 | 35.4 | 0.00 | 0.00 | 0.00 | 38 | 1006.3 |
| 20260505192247 | 27 | 161 | 20.9 | 37.0 | 0.00 | 0.00 | 0.00 | 38 | 1006.4 |
| 20260505192147 | 27 | 155 | 20.9 | 37.0 | 0.00 | 0.00 | 0.00 | 39 | 1006.4 |
| 20260505192042 | 27 | 190 | 19.3 | 37.0 | 0.00 | 0.00 | 0.00 | 37 | 1006.4 |
| 20260505191941 | 27 | 148 | 19.3 | 37.0 | 0.00 | 0.00 | 0.00 | 37 | 1006.4 |
| 20260505191836 | 27 | 168 | 17.7 | 37.0 | 0.00 | 0.00 | 0.00 | 38 | 1006.6 |
| 20260505191735 | 27 | 165 | 16.1 | 37.0 | 0.00 | 0.00 | 0.00 | 38 | 1006.6 |
| 20260505191630 | 28 | 134 | 16.1 | 37.0 | 0.00 | 0.00 | 0.00 | 37 | 1006.6 |
| 20260505191529 | 28 | 156 | 16.1 | 37.0 | 0.00 | 0.00 | 0.00 | 37 | 1006.7 |
| 20260505191424 | 28 | 166 | 16.1 | 37.0 | 0.00 | 0.00 | 0.00 | 37 | 1006.6 |
| 20260505191323 | 28 | 178 | 16.1 | 30.6 | 0.00 | 0.00 | 0.00 | 38 | 1006.7 |
| 20260505191218 | 28 | 165 | 16.1 | 30.6 | 0.00 | 0.00 | 0.00 | 38 | 1006.6 |
| 20260505191138 | 28 | 148 | 14.5 | 32.2 | 0.00 | 0.00 | 0.00 | 38 | 1006.7 |
| 20260505191130 | 28 | 194 | 16.1 | 32.2 | 0.00 | 0.00 | 0.00 | 40 | 1006.7 |
| 20260505190914 | 28 | 173 | 12.9 | 32.2 | 0.00 | 0.00 | 0.00 | 40 | 1006.7 |
| 20260505190815 | 28 | 158 | 12.9 | 32.2 | 0.00 | 0.00 | 0.00 | 39 | 1006.6 |
| 20260505190714 | 28 | 180 | 12.9 | 32.2 | 0.00 | 0.00 | 0.00 | 39 | 1006.6 |
| 20260505190614 | 28 | 218 | 14.5 | 32.2 | 0.00 | 0.00 | 0.00 | 37 | 1006.6 |
| 20260505190511 | 28 | 200 | 14.5 | 32.2 | 0.00 | 0.00 | 0.00 | 37 | 1006.7 |
| 20260505190410 | 28 | 205 | 14.5 | 32.2 | 0.00 | 0.00 | 0.00 | 37 | 1006.7 |
| 20260505190303 | 28 | 125 | 12.9 | 32.2 | 0.00 | 0.00 | 0.00 | 38 | 1006.7 |
| 20260505190205 | 28 | 121 | 12.9 | 32.2 | 0.00 | 0.00 | 0.00 | 38 | 1006.7 |
| 20260505190103 | 28 | 163 | 14.5 | 35.4 | 0.00 | 0.00 | 0.00 | 39 | 1006.7 |
| 20260505190004 | 28 | 172 | 14.5 | 35.4 | 0.00 | 0.00 | 0.00 | 42 | 1006.7 |
| 20260505185902 | 28 | 171 | 16.1 | 35.4 | 0.00 | 0.00 | 0.00 | 43 | 1006.7 |
| 20260505185802 | 28 | 171 | 16.1 | 35.4 | 0.00 | 0.00 | 0.00 | 39 | 1006.8 |
| 20260505185725 | 28 | 196 | 16.1 | 35.4 | 0.00 | 0.00 | 0.00 | 37 | 1006.8 |
| 20260505185715 | 28 | 163 | 16.1 | 35.4 | 0.00 | 0.00 | 0.00 | 37 | 1006.8 |
| 20260505185458 | 28 | 174 | 16.1 | 35.4 | 0.00 | 0.00 | 0.00 | 39 | 1006.8 |
| 20260505185354 | 28 | 143 | 16.1 | 35.4 | 0.00 | 0.00 | 0.00 | 39 | 1006.8 |
| 20260505185247 | 28 | 166 | 16.1 | 35.4 | 0.00 | 0.00 | 0.00 | 40 | 1007.0 |
| 20260505185148 | 28 | 178 | 16.1 | 35.4 | 0.00 | 0.00 | 0.00 | 41 | 1007.1 |
| 20260505185046 | 27 | 133 | 16.1 | 35.4 | 0.00 | 0.00 | 0.00 | 38 | 1006.8 |
| 20260505184948 | 27 | 182 | 16.1 | 35.4 | 0.00 | 0.00 | 0.00 | 39 | 1006.8 |
| 20260505184845 | 27 | 184 | 16.1 | 35.4 | 0.00 | 0.00 | 0.00 | 42 | 1006.9 |
| 20260505184739 | 27 | 188 | 16.1 | 35.4 | 0.00 | 0.00 | 0.00 | 39 | 1006.8 |
| 20260505184639 | 27 | 196 | 16.1 | 40.2 | 0.00 | 0.00 | 0.00 | 39 | 1006.9 |
| 20260505184626 | 27 | 198 | 16.1 | 40.2 | 0.00 | 0.00 | 0.00 | 40 | 1007.0 |
| 20260505184620 | 27 | 166 | 16.1 | 40.2 | 0.00 | 0.00 | 0.00 | 39 | 1007.0 |
| 20260505184609 | 27 | 198 | 16.1 | 40.2 | 0.00 | 0.00 | 0.00 | 38 | 1007.0 |
| 20260505184234 | 27 | 194 | 14.5 | 40.2 | 0.00 | 0.00 | 0.00 | 37 | 1007.0 |
| 20260505184135 | 27 | 161 | 14.5 | 40.2 | 0.00 | 0.00 | 0.00 | 39 | 1007.0 |
| 20260505184034 | 27 | 178 | 14.5 | 40.2 | 0.00 | 0.00 | 0.00 | 39 | 1007.0 |
| 20260505183933 | 27 | 165 | 14.5 | 40.2 | 0.00 | 0.00 | 0.00 | 38 | 1007.0 |
| 20260505183830 | 27 | 180 | 14.5 | 40.2 | 0.00 | 0.00 | 0.00 | 40 | 1007.0 |
| 20260505183722 | 27 | 171 | 16.1 | 40.2 | 0.00 | 0.00 | 0.00 | 38 | 1007.0 |
| 20260505183624 | 27 | 184 | 16.1 | 40.2 | 0.00 | 0.00 | 0.00 | 39 | 1007.1 |
| 20260505183523 | 27 | 203 | 16.1 | 40.2 | 0.00 | 0.00 | 0.00 | 38 | 1007.1 |
| 20260505183424 | 27 | 188 | 17.7 | 40.2 | 0.00 | 0.00 | 0.00 | 38 | 1007.0 |
| 20260505183405 | 27 | 161 | 17.7 | 40.2 | 0.00 | 0.00 | 0.00 | 39 | 1007.1 |
| 20260505183400 | 27 | 183 | 17.7 | 40.2 | 0.00 | 0.00 | 0.00 | 39 | 1007.1 |
| 20260505183349 | 27 | 171 | 17.7 | 40.2 | 0.00 | 0.00 | 0.00 | 41 | 1007.1 |
| 20260505183014 | 27 | 105 | 17.7 | 40.2 | 0.00 | 0.00 | 0.00 | 38 | 1007.1 |
| 20260505182916 | 27 | 189 | 17.7 | 40.2 | 0.00 | 0.00 | 0.00 | 38 | 1007.2 |
| 20260505182814 | 27 | 215 | 17.7 | 40.2 | 0.00 | 0.00 | 0.00 | 37 | 1007.1 |
| 20260505182710 | 27 | 196 | 17.7 | 40.2 | 0.00 | 0.00 | 0.00 | 37 | 1007.2 |
| 20260505182611 | 27 | 171 | 16.1 | 38.6 | 0.00 | 0.00 | 0.00 | 39 | 1007.2 |
| 20260505182535 | 27 | 211 | 16.1 | 33.8 | 0.00 | 0.00 | 0.00 | 39 | 1007.1 |
| 20260505182526 | 27 | 223 | 16.1 | 33.8 | 0.00 | 0.00 | 0.00 | 38 | 1007.0 |
| 20260505182309 | 27 | 202 | 14.5 | 33.8 | 0.00 | 0.00 | 0.00 | 38 | 1007.0 |
| 20260505182230 | 27 | 184 | 16.1 | 33.8 | 0.00 | 0.00 | 0.00 | 38 | 1007.2 |
| 20260505182224 | 27 | 190 | 14.5 | 33.8 | 0.00 | 0.00 | 0.00 | 38 | 1007.1 |
| 20260505181957 | 27 | 200 | 14.5 | 33.8 | 0.00 | 0.00 | 0.00 | 37 | 1007.2 |
| 20260505181857 | 27 | 228 | 12.9 | 33.8 | 0.00 | 0.00 | 0.00 | 36 | 1007.1 |
| 20260505181752 | 27 | 186 | 12.9 | 33.8 | 0.00 | 0.00 | 0.00 | 38 | 1007.2 |
| 20260505181651 | 27 | 190 | 14.5 | 33.8 | 0.00 | 0.00 | 0.00 | 40 | 1007.2 |
| 20260505181545 | 27 | 207 | 14.5 | 33.8 | 0.00 | 0.00 | 0.00 | 37 | 1007.2 |
| 20260505181445 | 27 | 230 | 12.9 | 33.8 | 0.00 | 0.00 | 0.00 | 39 | 1007.2 |
| 20260505181339 | 27 | 187 | 12.9 | 33.8 | 0.00 | 0.00 | 0.00 | 39 | 1007.1 |
| 20260505181239 | 27 | 238 | 12.9 | 33.8 | 0.00 | 0.00 | 0.00 | 38 | 1007.2 |
| 20260505181133 | 27 | 182 | 12.9 | 33.8 | 0.00 | 0.00 | 0.00 | 40 | 1007.2 |
| 20260505181033 | 27 | 161 | 14.5 | 33.8 | 0.00 | 0.00 | 0.00 | 40 | 1007.2 |
| 20260505180950 | 27 | 157 | 16.1 | 33.8 | 0.00 | 0.00 | 0.00 | 39 | 1007.2 |
| 20260505180941 | 27 | 183 | 14.5 | 33.8 | 0.00 | 0.00 | 0.00 | 40 | 1007.2 |
| 20260505180722 | 27 | 146 | 14.5 | 33.8 | 0.00 | 0.00 | 0.00 | 38 | 1007.1 |
| 20260505180621 | 27 | 170 | 14.5 | 29.0 | 0.00 | 0.00 | 0.00 | 39 | 1007.3 |
| 20260505180516 | 27 | 169 | 16.1 | 29.0 | 0.00 | 0.00 | 0.00 | 39 | 1007.3 |
| 20260505180415 | 27 | 226 | 16.1 | 30.6 | 0.00 | 0.00 | 0.00 | 40 | 1007.4 |
| 20260505180310 | 27 | 225 | 17.7 | 30.6 | 0.00 | 0.00 | 0.00 | 38 | 1007.4 |
| 20260505180209 | 27 | 223 | 17.7 | 30.6 | 0.00 | 0.00 | 0.00 | 38 | 1007.5 |
| 20260505180105 | 27 | 243 | 17.7 | 30.6 | 0.00 | 0.00 | 0.00 | 38 | 1007.5 |
| 20260505180020 | 27 | 223 | 17.7 | 30.6 | 0.00 | 0.00 | 0.00 | 40 | 1007.6 |
| 20260505180013 | 27 | 208 | 17.7 | 30.6 | 0.00 | 0.00 | 0.00 | 39 | 1007.5 |
| 20260505175758 | 27 | 210 | 16.1 | 30.6 | 0.00 | 0.00 | 0.00 | 38 | 1007.6 |
| 20260505175652 | 27 | 230 | 16.1 | 38.6 | 0.00 | 0.00 | 0.00 | 40 | 1007.5 |
| 20260505175551 | 27 | 230 | 14.5 | 38.6 | 0.00 | 0.00 | 0.00 | 40 | 1007.7 |
| 20260505175447 | 27 | 178 | 14.5 | 38.6 | 0.00 | 0.00 | 0.00 | 39 | 1007.5 |
| 20260505175345 | 27 | 203 | 14.5 | 38.6 | 0.00 | 0.00 | 0.00 | 38 | 1007.4 |
| 20260505175240 | 27 | 200 | 14.5 | 38.6 | 0.00 | 0.00 | 0.00 | 39 | 1007.5 |
| 20260505175139 | 27 | 214 | 14.5 | 38.6 | 0.00 | 0.00 | 0.00 | 40 | 1007.5 |
| 20260505175033 | 27 | 214 | 14.5 | 38.6 | 0.00 | 0.00 | 0.00 | 40 | 1007.4 |
| 20260505174933 | 27 | 176 | 14.5 | 38.6 | 0.00 | 0.00 | 0.00 | 40 | 1007.4 |
| 20260505174851 | 27 | 217 | 16.1 | 37.0 | 0.00 | 0.00 | 0.00 | 40 | 1007.4 |
| 20260505174843 | 27 | 204 | 14.5 | 38.6 | 0.00 | 0.00 | 0.00 | 42 | 1007.4 |
| 20260505174621 | 27 | 236 | 17.7 | 38.6 | 0.00 | 0.00 | 0.00 | 39 | 1007.4 |
| 20260505174521 | 27 | 232 | 17.7 | 38.6 | 0.00 | 0.00 | 0.00 | 39 | 1007.5 |
| 20260505174416 | 27 | 194 | 17.7 | 38.6 | 0.00 | 0.00 | 0.00 | 40 | 1007.5 |
| 20260505174314 | 27 | 176 | 17.7 | 38.6 | 0.00 | 0.00 | 0.00 | 39 | 1007.4 |
| 20260505174234 | 27 | 207 | 17.7 | 38.6 | 0.00 | 0.00 | 0.00 | 39 | 1007.4 |
| 20260505174226 | 27 | 211 | 17.7 | 38.6 | 0.00 | 0.00 | 0.00 | 39 | 1007.5 |
| 20260505174004 | 27 | 234 | 19.3 | 38.6 | 0.00 | 0.00 | 0.00 | 38 | 1007.5 |
| 20260505173903 | 27 | 202 | 17.7 | 38.6 | 0.00 | 0.00 | 0.00 | 40 | 1007.5 |
| 20260505173757 | 27 | 207 | 17.7 | 38.6 | 0.00 | 0.00 | 0.00 | 38 | 1007.5 |
| 20260505173657 | 27 | 132 | 17.7 | 35.4 | 0.00 | 0.00 | 0.00 | 39 | 1007.6 |
| 20260505173552 | 27 | 174 | 16.1 | 35.4 | 0.00 | 0.00 | 0.00 | 40 | 1007.5 |
| 20260505173450 | 27 | 180 | 16.1 | 35.4 | 0.00 | 0.00 | 0.00 | 39 | 1007.5 |
| 20260505173346 | 27 | 140 | 16.1 | 35.4 | 0.00 | 0.00 | 0.00 | 38 | 1007.4 |
| 20260505173244 | 27 | 161 | 16.1 | 35.4 | 0.00 | 0.00 | 0.00 | 41 | 1007.5 |
| 20260505173139 | 27 | 218 | 16.1 | 35.4 | 0.00 | 0.00 | 0.00 | 39 | 1007.5 |
| 20260505173039 | 27 | 179 | 14.5 | 30.6 | 0.00 | 0.00 | 0.00 | 40 | 1007.5 |
| 20260505172933 | 27 | 157 | 12.9 | 27.4 | 0.00 | 0.00 | 0.00 | 41 | 1007.5 |
| 20260505172832 | 27 | 150 | 12.9 | 25.7 | 0.00 | 0.00 | 0.00 | 43 | 1007.5 |
| 20260505172727 | 27 | 156 | 12.9 | 38.6 | 0.00 | 0.00 | 0.00 | 43 | 1007.5 |
| 20260505172627 | 27 | 123 | 12.9 | 38.6 | 0.00 | 0.00 | 0.00 | 42 | 1007.6 |
| 20260505172521 | 27 | 173 | 12.9 | 38.6 | 0.00 | 0.00 | 0.00 | 42 | 1007.6 |
| 20260505172421 | 27 | 182 | 12.9 | 38.6 | 0.00 | 0.00 | 0.00 | 42 | 1007.6 |
| 20260505172356 | 27 | 203 | 12.9 | 38.6 | 0.00 | 0.00 | 0.00 | 42 | 1007.5 |
| 20260505172351 | 27 | 197 | 12.9 | 38.6 | 0.00 | 0.00 | 0.00 | 44 | 1007.6 |
| 20260505172341 | 27 | 159 | 12.9 | 38.6 | 0.00 | 0.00 | 0.00 | 43 | 1007.5 |
| 20260505172008 | 27 | 275 | 14.5 | 38.6 | 0.00 | 0.00 | 0.00 | 42 | 1007.6 |
| 20260505171904 | 27 | 164 | 14.5 | 38.6 | 0.00 | 0.00 | 0.00 | 41 | 1007.6 |
| 20260505171802 | 27 | 236 | 16.1 | 38.6 | 0.00 | 0.00 | 0.00 | 38 | 1007.6 |
| 20260505171658 | 27 | 207 | 16.1 | 38.6 | 0.00 | 0.00 | 0.00 | 38 | 1007.6 |
| 20260505171557 | 27 | 198 | 16.1 | 38.6 | 0.00 | 0.00 | 0.00 | 38 | 1007.6 |
| 20260505171452 | 27 | 164 | 17.7 | 38.6 | 0.00 | 0.00 | 0.00 | 38 | 1007.7 |
| 20260505171350 | 27 | 186 | 17.7 | 38.6 | 0.00 | 0.00 | 0.00 | 40 | 1007.7 |
| 20260505171246 | 27 | 164 | 17.7 | 38.6 | 0.00 | 0.00 | 0.00 | 39 | 1007.7 |
| 20260505171144 | 27 | 191 | 17.7 | 38.6 | 0.00 | 0.00 | 0.00 | 39 | 1007.7 |
| 20260505171037 | 27 | 165 | 17.7 | 38.6 | 0.00 | 0.00 | 0.00 | 38 | 1007.7 |
| 20260505170937 | 27 | 167 | 16.1 | 38.6 | 0.00 | 0.00 | 0.00 | 38 | 1007.8 |
| 20260505170910 | 27 | 186 | 14.5 | 32.2 | 0.00 | 0.00 | 0.00 | 39 | 1007.8 |
| 20260505170905 | 27 | 193 | 14.5 | 27.4 | 0.00 | 0.00 | 0.00 | 40 | 1007.8 |
| 20260505170855 | 27 | 166 | 16.1 | 38.6 | 0.00 | 0.00 | 0.00 | 38 | 1007.8 |
| 20260505170525 | 27 | 175 | 14.5 | 27.4 | 0.00 | 0.00 | 0.00 | 40 | 1007.7 |
| 20260505170418 | 27 | 219 | 14.5 | 27.4 | 0.00 | 0.00 | 0.00 | 40 | 1007.8 |
| 20260505170319 | 27 | 219 | 14.5 | 27.4 | 0.00 | 0.00 | 0.00 | 39 | 1007.7 |
| 20260505170214 | 27 | 221 | 14.5 | 37.0 | 0.00 | 0.00 | 0.00 | 43 | 1007.7 |
| 20260505170112 | 27 | 215 | 14.5 | 37.0 | 0.00 | 0.00 | 0.00 | 42 | 1007.8 |
| 20260505170007 | 27 | 205 | 16.1 | 37.0 | 0.00 | 0.00 | 0.00 | 41 | 1007.8 |
| 20260505165906 | 27 | 198 | 16.1 | 37.0 | 0.00 | 0.00 | 0.00 | 39 | 1007.8 |
| 20260505165800 | 27 | 212 | 16.1 | 37.0 | 0.00 | 0.00 | 0.00 | 41 | 1007.8 |
| 20260505165701 | 26 | 186 | 16.1 | 37.0 | 0.00 | 0.00 | 0.00 | 42 | 1007.9 |
| 20260505165554 | 26 | 222 | 16.1 | 37.0 | 0.00 | 0.00 | 0.00 | 41 | 1007.8 |
| 20260505165455 | 26 | 200 | 16.1 | 37.0 | 0.00 | 0.00 | 0.00 | 41 | 1007.9 |
| 20260505165348 | 26 | 206 | 17.7 | 37.0 | 0.00 | 0.00 | 0.00 | 40 | 1007.9 |
| 20260505165249 | 26 | 224 | 17.7 | 37.0 | 0.00 | 0.00 | 0.00 | 40 | 1007.9 |
| 20260505165222 | 26 | 199 | 17.7 | 37.0 | 0.00 | 0.00 | 0.00 | 41 | 1008.0 |
| 20260505165217 | 26 | 218 | 17.7 | 37.0 | 0.00 | 0.00 | 0.00 | 40 | 1008.0 |
| 20260505165207 | 26 | 217 | 17.7 | 37.0 | 0.00 | 0.00 | 0.00 | 40 | 1007.9 |
| 20260505164837 | 26 | 239 | 17.7 | 37.0 | 0.00 | 0.00 | 0.00 | 41 | 1008.0 |
| 20260505164730 | 26 | 217 | 17.7 | 37.0 | 0.00 | 0.00 | 0.00 | 42 | 1008.0 |
| 20260505164631 | 26 | 208 | 17.7 | 37.0 | 0.00 | 0.00 | 0.00 | 42 | 1008.0 |
| 20260505164524 | 26 | 237 | 16.1 | 37.0 | 0.00 | 0.00 | 0.00 | 41 | 1008.1 |
| 20260505164442 | 26 | 222 | 14.5 | 37.0 | 0.00 | 0.00 | 0.00 | 42 | 1008.0 |
| 20260505164435 | 26 | 204 | 16.1 | 37.0 | 0.00 | 0.00 | 0.00 | 41 | 1008.1 |
| 20260505164219 | 26 | 215 | 14.5 | 27.4 | 0.00 | 0.00 | 0.00 | 43 | 1008.1 |
| 20260505164113 | 26 | 230 | 16.1 | 27.4 | 0.00 | 0.00 | 0.00 | 42 | 1008.1 |
| 20260505164012 | 26 | 227 | 16.1 | 27.4 | 0.00 | 0.00 | 0.00 | 40 | 1008.1 |
| 20260505163906 | 26 | 243 | 16.1 | 27.4 | 0.00 | 0.00 | 0.00 | 42 | 1008.1 |
| 20260505163807 | 26 | 211 | 16.1 | 27.4 | 0.00 | 0.00 | 0.00 | 42 | 1008.2 |
| 20260505163700 | 26 | 232 | 16.1 | 27.4 | 0.00 | 0.00 | 0.00 | 43 | 1008.2 |
| 20260505163601 | 26 | 256 | 14.5 | 27.4 | 0.00 | 0.00 | 0.00 | 42 | 1008.2 |
| 20260505163454 | 26 | 268 | 14.5 | 32.2 | 0.00 | 0.00 | 0.00 | 43 | 1008.2 |
| 20260505163355 | 26 | 278 | 14.5 | 32.2 | 0.00 | 0.00 | 0.00 | 44 | 1008.2 |
| 20260505163249 | 26 | 182 | 16.1 | 32.2 | 0.00 | 0.00 | 0.00 | 43 | 1008.2 |
| 20260505163206 | 26 | 192 | 14.5 | 32.2 | 0.00 | 0.00 | 0.00 | 41 | 1008.3 |
| 20260505163159 | 26 | 240 | 16.1 | 32.2 | 0.00 | 0.00 | 0.00 | 43 | 1008.2 |
| 20260505162943 | 27 | 194 | 14.5 | 32.2 | 0.00 | 0.00 | 0.00 | 42 | 1008.3 |
| 20260505162837 | 27 | 157 | 14.5 | 32.2 | 0.00 | 0.00 | 0.00 | 43 | 1008.4 |
| 20260505162737 | 27 | 241 | 14.5 | 32.2 | 0.00 | 0.00 | 0.00 | 43 | 1008.4 |
| 20260505162653 | 27 | 191 | 14.5 | 32.2 | 0.00 | 0.00 | 0.00 | 45 | 1008.5 |
| 20260505162645 | 27 | 218 | 14.5 | 32.2 | 0.00 | 0.00 | 0.00 | 46 | 1008.4 |
| 20260505162425 | 26 | 213 | 14.5 | 30.6 | 0.00 | 0.00 | 0.00 | 45 | 1008.3 |
| 20260505162343 | 26 | 228 | 14.5 | 30.6 | 0.00 | 0.00 | 0.00 | 46 | 1008.3 |
| 20260505162335 | 26 | 200 | 14.5 | 30.6 | 0.00 | 0.00 | 0.00 | 44 | 1008.4 |
| 20260505162119 | 26 | 200 | 14.5 | 30.6 | 0.00 | 0.00 | 0.00 | 44 | 1008.3 |
| 20260505162013 | 26 | 231 | 14.5 | 30.6 | 0.00 | 0.00 | 0.00 | 45 | 1008.4 |
| 20260505161913 | 26 | 195 | 16.1 | 30.6 | 0.00 | 0.00 | 0.00 | 45 | 1008.4 |
| 20260505161806 | 26 | 225 | 14.5 | 30.6 | 0.00 | 0.00 | 0.00 | 43 | 1008.5 |
| 20260505161707 | 26 | 246 | 14.5 | 30.6 | 0.00 | 0.00 | 0.00 | 46 | 1008.4 |
| 20260505161600 | 26 | 172 | 12.9 | 30.6 | 0.00 | 0.00 | 0.00 | 46 | 1008.4 |
| 20260505161520 | 26 | 196 | 9.7 | 25.7 | 0.00 | 0.00 | 0.00 | 47 | 1008.5 |
| 20260505161515 | 26 | 233 | 12.9 | 30.6 | 0.00 | 0.00 | 0.00 | 43 | 1008.3 |
| 20260505161509 | 26 | 209 | 12.9 | 30.6 | 0.00 | 0.00 | 0.00 | 44 | 1008.4 |
| 20260505161453 | 26 | 215 | 12.9 | 30.6 | 0.00 | 0.00 | 0.00 | 45 | 1008.3 |
| 20260505161217 | 26 | 253 | 11.3 | 30.6 | 0.00 | 0.00 | 0.00 | 43 | 1008.5 |
| 20260505161059 | 26 | 200 | 9.7 | 27.4 | 0.00 | 0.00 | 0.00 | 45 | 1008.6 |
| 20260505160843 | 26 | 267 | 8.0 | 25.7 | 0.00 | 0.00 | 0.00 | 47 | 1008.5 |
| 20260505160737 | 26 | 251 | 8.0 | 25.7 | 0.00 | 0.00 | 0.00 | 48 | 1008.5 |
| 20260505160637 | 26 | 252 | 9.7 | 25.7 | 0.00 | 0.00 | 0.00 | 48 | 1008.5 |
| 20260505160531 | 26 | 254 | 9.7 | 25.7 | 0.00 | 0.00 | 0.00 | 47 | 1008.5 |
| 20260505160430 | 26 | 243 | 9.7 | 25.7 | 0.00 | 0.00 | 0.00 | 46 | 1008.5 |
| 20260505160326 | 26 | 254 | 11.3 | 25.7 | 0.00 | 0.00 | 0.00 | 47 | 1008.6 |
| 20260505160225 | 26 | 242 | 11.3 | 25.7 | 0.00 | 0.00 | 0.00 | 47 | 1008.6 |
| 20260505160119 | 26 | 182 | 11.3 | 25.7 | 0.00 | 0.00 | 0.00 | 49 | 1008.5 |
| 20260505153301 | 25 | 205 | 14.5 | 29.0 | 0.00 | 0.00 | 0.00 | 48 | 1008.7 |
| 20260505153155 | 25 | 202 | 16.1 | 29.0 | 0.00 | 0.00 | 0.00 | 47 | 1008.8 |
| 20260505153055 | 25 | 205 | 16.1 | 29.0 | 0.00 | 0.00 | 0.00 | 49 | 1008.7 |
| 20260505152950 | 25 | 208 | 16.1 | 29.0 | 0.00 | 0.00 | 0.00 | 48 | 1008.7 |
| 20260505152905 | 25 | 231 | 14.5 | 29.0 | 0.00 | 0.00 | 0.00 | 49 | 1008.8 |
| 20260505152859 | 25 | 221 | 16.1 | 29.0 | 0.00 | 0.00 | 0.00 | 48 | 1008.7 |
| 20260505152645 | 25 | 189 | 14.5 | 29.0 | 0.00 | 0.00 | 0.00 | 47 | 1008.8 |
| 20260505152601 | 25 | 184 | 12.9 | 29.0 | 0.00 | 0.00 | 0.00 | 48 | 1008.7 |
| 20260505152552 | 25 | 177 | 14.5 | 29.0 | 0.00 | 0.00 | 0.00 | 50 | 1008.8 |
| 20260505152332 | 25 | 170 | 12.9 | 29.0 | 0.00 | 0.00 | 0.00 | 47 | 1008.8 |
| 20260505152232 | 25 | 204 | 12.9 | 27.4 | 0.00 | 0.00 | 0.00 | 48 | 1008.7 |
| 20260505152124 | 25 | 222 | 11.3 | 25.7 | 0.00 | 0.00 | 0.00 | 48 | 1008.7 |
| 20260505152025 | 25 | 192 | 11.3 | 25.7 | 0.00 | 0.00 | 0.00 | 48 | 1008.7 |
| 20260505151918 | 25 | 180 | 11.3 | 25.7 | 0.00 | 0.00 | 0.00 | 48 | 1008.7 |
| 20260505151900 | 25 | 216 | 12.9 | 25.7 | 0.00 | 0.00 | 0.00 | 50 | 1008.7 |
| 20260505151849 | 25 | 187 | 12.9 | 25.7 | 0.00 | 0.00 | 0.00 | 50 | 1008.7 |
| 20260505151727 | 25 | 209 | 12.9 | 25.7 | 0.00 | 0.00 | 0.00 | 51 | 1008.7 |
| 20260505151506 | 25 | 211 | 12.9 | 25.7 | 0.00 | 0.00 | 0.00 | 52 | 1008.7 |
| 20260505151423 | 25 | 217 | 12.9 | 25.7 | 0.00 | 0.00 | 0.00 | 48 | 1008.8 |
| 20260505151417 | 25 | 261 | 12.9 | 25.7 | 0.00 | 0.00 | 0.00 | 51 | 1008.7 |
| 20260505151201 | 25 | 186 | 12.9 | 25.7 | 0.00 | 0.00 | 0.00 | 48 | 1008.8 |
| 20260505151054 | 25 | 244 | 11.3 | 25.7 | 0.00 | 0.00 | 0.00 | 49 | 1008.8 |
| 20260505150955 | 25 | 199 | 11.3 | 25.7 | 0.00 | 0.00 | 0.00 | 48 | 1008.8 |
| 20260505150849 | 25 | 240 | 11.3 | 22.5 | 0.00 | 0.00 | 0.00 | 48 | 1008.7 |
| 20260505150749 | 25 | 250 | 11.3 | 20.9 | 0.00 | 0.00 | 0.00 | 48 | 1008.7 |
| 20260505150643 | 25 | 254 | 9.7 | 20.9 | 0.00 | 0.00 | 0.00 | 49 | 1008.7 |
| 20260505150543 | 25 | 226 | 9.7 | 20.9 | 0.00 | 0.00 | 0.00 | 51 | 1008.7 |
| 20260505150437 | 25 | 230 | 9.7 | 20.9 | 0.00 | 0.00 | 0.00 | 50 | 1008.7 |
| 20260505150338 | 25 | 194 | 9.7 | 20.9 | 0.00 | 0.00 | 0.00 | 49 | 1008.7 |
| 20260505150231 | 25 | 252 | 11.3 | 20.9 | 0.00 | 0.00 | 0.00 | 52 | 1008.7 |
| 20260505150131 | 25 | 238 | 11.3 | 20.9 | 0.00 | 0.00 | 0.00 | 50 | 1008.8 |
| 20260505140550 | 22 | 223 | 9.7 | 19.3 | 0.00 | 0.00 | 0.00 | 58 | 1009.3 |
| 20260505140449 | 22 | 194 | 11.3 | 19.3 | 0.00 | 0.00 | 0.00 | 58 | 1009.3 |
| 20260505140344 | 22 | 223 | 11.3 | 19.3 | 0.00 | 0.00 | 0.00 | 56 | 1009.3 |
| 20260505140243 | 22 | 176 | 9.7 | 19.3 | 0.00 | 0.00 | 0.00 | 57 | 1009.3 |
| 20260505140137 | 22 | 177 | 9.7 | 19.3 | 0.00 | 0.00 | 0.00 | 57 | 1009.3 |
| 20260505130311 | 18 | 194 | 1.6 | 4.8 | 0.00 | 0.00 | 0.00 | 69 | 1009.8 |
| 20260505130205 | 18 | 194 | 1.6 | 4.8 | 0.00 | 0.00 | 0.00 | 69 | 1009.8 |
| 20260505130105 | 18 | 194 | 1.6 | 8.0 | 0.00 | 0.00 | 0.00 | 69 | 1009.8 |
| 20260505125035 | 18 | 191 | 3.2 | 8.0 | 0.00 | 0.00 | 0.00 | 70 | 1009.8 |
| 20260505124952 | 17 | 191 | 3.2 | 8.0 | 0.00 | 0.00 | 0.00 | 71 | 1009.9 |
| 20260505124943 | 17 | 191 | 3.2 | 8.0 | 0.00 | 0.00 | 0.00 | 71 | 1009.8 |
| 20260505124743 | 17 | 190 | 3.2 | 8.0 | 0.00 | 0.00 | 0.00 | 71 | 1009.8 |
| 20260505124736 | 17 | 190 | 3.2 | 8.0 | 0.00 | 0.00 | 0.00 | 71 | 1009.9 |
| 20260505124518 | 17 | 190 | 3.2 | 8.0 | 0.00 | 0.00 | 0.00 | 71 | 1009.9 |
| 20260505124417 | 17 | 190 | 3.2 | 8.0 | 0.00 | 0.00 | 0.00 | 71 | 1009.9 |
| 20260505124312 | 17 | 190 | 3.2 | 8.0 | 0.00 | 0.00 | 0.00 | 72 | 1009.9 |
| 20260505124211 | 17 | 190 | 3.2 | 8.0 | 0.00 | 0.00 | 0.00 | 72 | 1009.9 |
| 20260505124106 | 17 | 190 | 3.2 | 8.0 | 0.00 | 0.00 | 0.00 | 72 | 1009.9 |
| 20260505124005 | 17 | 190 | 3.2 | 8.0 | 0.00 | 0.00 | 0.00 | 72 | 1009.9 |
| 20260505123858 | 17 | 191 | 3.2 | 8.0 | 0.00 | 0.00 | 0.00 | 72 | 1009.9 |
| 20260505123759 | 17 | 191 | 3.2 | 9.7 | 0.00 | 0.00 | 0.00 | 72 | 1009.9 |
| 20260505123654 | 17 | 191 | 3.2 | 9.7 | 0.00 | 0.00 | 0.00 | 72 | 1009.8 |
| 20260505123553 | 17 | 190 | 3.2 | 9.7 | 0.00 | 0.00 | 0.00 | 72 | 1009.9 |
| 20260505123448 | 17 | 190 | 3.2 | 9.7 | 0.00 | 0.00 | 0.00 | 72 | 1009.8 |
| 20260505123403 | 17 | 190 | 4.8 | 9.7 | 0.00 | 0.00 | 0.00 | 72 | 1009.8 |
| 20260505123356 | 17 | 190 | 3.2 | 9.7 | 0.00 | 0.00 | 0.00 | 73 | 1009.8 |
| 20260505123220 | 17 | 190 | 4.8 | 9.7 | 0.00 | 0.00 | 0.00 | 73 | 1009.9 |
| 20260505123216 | 17 | 198 | 4.8 | 9.7 | 0.00 | 0.00 | 0.00 | 73 | 1009.8 |
| 20260505123206 | 17 | 190 | 4.8 | 9.7 | 0.00 | 0.00 | 0.00 | 72 | 1009.8 |
| 20260505122830 | 17 | 199 | 4.8 | 9.7 | 0.00 | 0.00 | 0.00 | 73 | 1009.8 |
| 20260505122729 | 17 | 199 | 3.2 | 9.7 | 0.00 | 0.00 | 0.00 | 73 | 1009.8 |
| 20260505122623 | 17 | 202 | 3.2 | 9.7 | 0.00 | 0.00 | 0.00 | 73 | 1009.9 |
| 20260505122540 | 16 | 202 | 3.2 | 9.7 | 0.00 | 0.00 | 0.00 | 73 | 1009.9 |
| 20260505122533 | 17 | 202 | 3.2 | 9.7 | 0.00 | 0.00 | 0.00 | 73 | 1009.9 |
| 20260505122318 | 16 | 202 | 3.2 | 9.7 | 0.00 | 0.00 | 0.00 | 74 | 1009.9 |
| 20260505122233 | 16 | 202 | 3.2 | 9.7 | 0.00 | 0.00 | 0.00 | 75 | 1009.8 |
| 20260505122226 | 16 | 202 | 3.2 | 9.7 | 0.00 | 0.00 | 0.00 | 74 | 1009.9 |
| 20260505122004 | 16 | 203 | 3.2 | 9.7 | 0.00 | 0.00 | 0.00 | 75 | 1009.9 |
| 20260505121905 | 16 | 206 | 3.2 | 9.7 | 0.00 | 0.00 | 0.00 | 76 | 1009.8 |
| 20260505121758 | 16 | 226 | 3.2 | 8.0 | 0.00 | 0.00 | 0.00 | 77 | 1009.8 |
| 20260505121659 | 16 | 226 | 3.2 | 8.0 | 0.00 | 0.00 | 0.00 | 77 | 1009.8 |
| 20260505121552 | 16 | 226 | 3.2 | 8.0 | 0.00 | 0.00 | 0.00 | 77 | 1009.7 |
| 20260505121453 | 16 | 226 | 3.2 | 8.0 | 0.00 | 0.00 | 0.00 | 78 | 1009.7 |
| 20260505121410 | 16 | 226 | 3.2 | 8.0 | 0.00 | 0.00 | 0.00 | 77 | 1009.8 |
| 20260505121401 | 16 | 226 | 3.2 | 8.0 | 0.00 | 0.00 | 0.00 | 78 | 1009.8 |
| 20260505121141 | 16 | 226 | 3.2 | 8.0 | 0.00 | 0.00 | 0.00 | 77 | 1009.8 |
| 20260505121041 | 16 | 227 | 3.2 | 6.4 | 0.00 | 0.00 | 0.00 | 78 | 1009.8 |
| 20260505120936 | 16 | 227 | 3.2 | 6.4 | 0.00 | 0.00 | 0.00 | 78 | 1009.8 |
| 20260505120852 | 16 | 227 | 3.2 | 6.4 | 0.00 | 0.00 | 0.00 | 79 | 1009.8 |
| 20260505120844 | 16 | 227 | 3.2 | 6.4 | 0.00 | 0.00 | 0.00 | 79 | 1009.8 |
| 20260505120630 | 15 | 227 | 3.2 | 6.4 | 0.00 | 0.00 | 0.00 | 79 | 1009.8 |
| 20260505120522 | 15 | 227 | 3.2 | 6.4 | 0.00 | 0.00 | 0.00 | 79 | 1009.7 |
| 20260505120423 | 15 | 228 | 3.2 | 6.4 | 0.00 | 0.00 | 0.00 | 80 | 1009.8 |
| 20260505120316 | 15 | 228 | 3.2 | 6.4 | 0.00 | 0.00 | 0.00 | 80 | 1009.8 |
| 20260505120217 | 15 | 228 | 3.2 | 8.0 | 0.00 | 0.00 | 0.00 | 80 | 1009.7 |
| 20260505120110 | 15 | 228 | 3.2 | 8.0 | 0.00 | 0.00 | 0.00 | 80 | 1009.7 |
| 20260505120030 | 15 | 228 | 3.2 | 8.0 | 0.00 | 0.00 | 0.00 | 81 | 1009.7 |
| 20260505120024 | 15 | 228 | 3.2 | 8.0 | 0.00 | 0.00 | 0.00 | 81 | 1009.8 |
| 20260505115805 | 15 | 228 | 3.2 | 8.0 | 0.00 | 0.00 | 0.00 | 82 | 1009.8 |
| 20260505115659 | 15 | 228 | 3.2 | 8.0 | 0.00 | 0.00 | 0.00 | 82 | 1009.7 |
| 20260505115639 | 15 | 228 | 3.2 | 8.0 | 0.00 | 0.00 | 0.00 | 83 | 1009.7 |
| 20260505115628 | 15 | 228 | 3.2 | 8.0 | 0.00 | 0.00 | 0.00 | 82 | 1009.8 |
| 20260505115509 | 15 | 228 | 3.2 | 8.0 | 0.00 | 0.00 | 0.00 | 83 | 1009.7 |
| 20260505115246 | 15 | 228 | 3.2 | 8.0 | 0.00 | 0.00 | 0.00 | 83 | 1009.7 |
| 20260505115147 | 14 | 228 | 3.2 | 8.0 | 0.00 | 0.00 | 0.00 | 83 | 1009.7 |
| 20260505115041 | 14 | 228 | 3.2 | 8.0 | 0.00 | 0.00 | 0.00 | 84 | 1009.7 |
| 20260505114941 | 14 | 228 | 3.2 | 8.0 | 0.00 | 0.00 | 0.00 | 84 | 1009.7 |
| 20260505114835 | 14 | 228 | 3.2 | 8.0 | 0.00 | 0.00 | 0.00 | 84 | 1009.7 |
| 20260505114735 | 14 | 229 | 3.2 | 8.0 | 0.00 | 0.00 | 0.00 | 84 | 1009.6 |
| 20260505114628 | 14 | 229 | 3.2 | 8.0 | 0.00 | 0.00 | 0.00 | 84 | 1009.6 |
| 20260505114529 | 14 | 229 | 3.2 | 8.0 | 0.00 | 0.00 | 0.00 | 84 | 1009.6 |
| 20260505114424 | 14 | 229 | 3.2 | 8.0 | 0.00 | 0.00 | 0.00 | 84 | 1009.6 |
| 20260505114323 | 14 | 229 | 3.2 | 8.0 | 0.00 | 0.00 | 0.00 | 84 | 1009.6 |
| 20260505114216 | 14 | 229 | 3.2 | 6.4 | 0.00 | 0.00 | 0.00 | 85 | 1009.6 |
| 20260505114118 | 14 | 237 | 3.2 | 6.4 | 0.00 | 0.00 | 0.00 | 85 | 1009.6 |
| 20260505114010 | 14 | 260 | 3.2 | 6.4 | 0.00 | 0.00 | 0.00 | 86 | 1009.6 |
| 20260505113911 | 14 | 261 | 3.2 | 6.4 | 0.00 | 0.00 | 0.00 | 86 | 1009.5 |
| 20260505113806 | 14 | 261 | 1.6 | 6.4 | 0.00 | 0.00 | 0.00 | 87 | 1009.5 |
| 20260505113705 | 14 | 261 | 1.6 | 6.4 | 0.00 | 0.00 | 0.00 | 87 | 1009.5 |
| 20260505113559 | 13 | 261 | 1.6 | 6.4 | 0.00 | 0.00 | 0.00 | 87 | 1009.6 |
| 20260505113459 | 13 | 261 | 1.6 | 6.4 | 0.00 | 0.00 | 0.00 | 86 | 1009.5 |
| 20260505113353 | 13 | 261 | 1.6 | 6.4 | 0.00 | 0.00 | 0.00 | 85 | 1009.5 |
| 20260505113253 | 13 | 261 | 1.6 | 6.4 | 0.00 | 0.00 | 0.00 | 85 | 1009.5 |
| 20260505113147 | 13 | 293 | 0.0 | 4.8 | 0.00 | 0.00 | 0.00 | 84 | 1009.4 |
| 20260505113047 | 13 | 294 | 0.0 | 4.8 | 0.00 | 0.00 | 0.00 | 83 | 1009.4 |
| 20260505112942 | 13 | 309 | 0.0 | 1.6 | 0.00 | 0.00 | 0.00 | 83 | 1009.4 |
| 20260505112841 | 12 | 309 | 0.0 | 1.6 | 0.00 | 0.00 | 0.00 | 83 | 1009.5 |
| 20260505112735 | 12 | 309 | 0.0 | 1.6 | 0.00 | 0.00 | 0.00 | 83 | 1009.4 |
| 20260505112635 | 12 | 309 | 0.0 | 1.6 | 0.00 | 0.00 | 0.00 | 83 | 1009.4 |
| 20260505112528 | 12 | 309 | 0.0 | 1.6 | 0.00 | 0.00 | 0.00 | 83 | 1009.3 |
| 20260505112429 | 12 | 309 | 0.0 | 1.6 | 0.00 | 0.00 | 0.00 | 83 | 1009.4 |
| 20260505112322 | 12 | 309 | 0.0 | 1.6 | 0.00 | 0.00 | 0.00 | 82 | 1009.4 |
| 20260505112239 | 11 | 309 | 0.0 | 1.6 | 0.00 | 0.00 | 0.00 | 81 | 1009.4 |
| 20260505112233 | 12 | 309 | 0.0 | 1.6 | 0.00 | 0.00 | 0.00 | 82 | 1009.4 |
| 20260505112017 | 11 | 309 | 0.0 | 1.6 | 0.00 | 0.00 | 0.00 | 81 | 1009.4 |
| 20260505111910 | 11 | 309 | 0.0 | 1.6 | 0.00 | 0.00 | 0.00 | 81 | 1009.4 |
| 20260505111826 | 11 | 309 | 0.0 | 1.6 | 0.00 | 0.00 | 0.00 | 81 | 1009.4 |
| 20260505111820 | 11 | 309 | 0.0 | 1.6 | 0.00 | 0.00 | 0.00 | 80 | 1009.4 |
| 20260505111621 | 11 | 309 | 0.0 | 3.2 | 0.00 | 0.00 | 0.00 | 81 | 1009.4 |
| 20260505111614 | 11 | 309 | 0.0 | 1.6 | 0.00 | 0.00 | 0.00 | 81 | 1009.3 |
| 20260505111400 | 10 | 309 | 0.0 | 3.2 | 0.00 | 0.00 | 0.00 | 81 | 1009.4 |
| 20260505111252 | 10 | 309 | 0.0 | 3.2 | 0.00 | 0.00 | 0.00 | 81 | 1009.4 |
| 20260505111208 | 10 | 309 | 0.0 | 3.2 | 0.00 | 0.00 | 0.00 | 82 | 1009.3 |
| 20260505111202 | 10 | 309 | 0.0 | 3.2 | 0.00 | 0.00 | 0.00 | 82 | 1009.3 |
| 20260505110947 | 10 | 309 | 0.0 | 3.2 | 0.00 | 0.00 | 0.00 | 82 | 1009.2 |
| 20260505110918 | 10 | 309 | 0.0 | 3.2 | 0.00 | 0.00 | 0.00 | 82 | 1009.3 |
| 20260505110913 | 9 | 309 | 0.0 | 3.2 | 0.00 | 0.00 | 0.00 | 83 | 1009.3 |
| 20260505110904 | 10 | 309 | 0.0 | 3.2 | 0.00 | 0.00 | 0.00 | 82 | 1009.2 |
| 20260505110535 | 9 | 309 | 0.0 | 3.2 | 0.00 | 0.00 | 0.00 | 83 | 1009.3 |
| 20260505110429 | 9 | 309 | 1.6 | 3.2 | 0.00 | 0.00 | 0.00 | 84 | 1009.3 |
| 20260505110329 | 9 | 309 | 1.6 | 3.2 | 0.00 | 0.00 | 0.00 | 84 | 1009.4 |
| 20260505110223 | 9 | 309 | 1.6 | 3.2 | 0.00 | 0.00 | 0.00 | 84 | 1009.3 |
| 20260505110123 | 9 | 309 | 1.6 | 3.2 | 0.00 | 0.00 | 0.00 | 84 | 1009.4 |
| 20260505102129 | 9 | 309 | 3.2 | 6.4 | 0.00 | 0.00 | 0.00 | 86 | 1008.9 |
| 20260505102022 | 9 | 309 | 3.2 | 6.4 | 0.00 | 0.00 | 0.00 | 85 | 1008.9 |
| 20260505102001 | 9 | 309 | 3.2 | 6.4 | 0.00 | 0.00 | 0.00 | 85 | 1008.9 |
| 20260505101957 | 9 | 309 | 3.2 | 6.4 | 0.00 | 0.00 | 0.00 | 85 | 1008.9 |
| 20260505101947 | 9 | 309 | 3.2 | 6.4 | 0.00 | 0.00 | 0.00 | 85 | 1008.9 |
| 20260505101610 | 8 | 309 | 3.2 | 6.4 | 0.00 | 0.00 | 0.00 | 85 | 1008.9 |
| 20260505101511 | 8 | 309 | 3.2 | 6.4 | 0.00 | 0.00 | 0.00 | 85 | 1009.0 |
| 20260505101406 | 8 | 309 | 3.2 | 6.4 | 0.00 | 0.00 | 0.00 | 85 | 1009.1 |
| 20260505101304 | 8 | 306 | 3.2 | 6.4 | 0.00 | 0.00 | 0.00 | 85 | 1009.1 |
| 20260505101159 | 8 | 304 | 3.2 | 6.4 | 0.00 | 0.00 | 0.00 | 85 | 1009.1 |
| 20260505101057 | 8 | 304 | 3.2 | 6.4 | 0.00 | 0.00 | 0.00 | 85 | 1009.0 |
| 20260505100952 | 8 | 304 | 3.2 | 6.4 | 0.00 | 0.00 | 0.00 | 85 | 1009.1 |
| 20260505100851 | 8 | 304 | 3.2 | 6.4 | 0.00 | 0.00 | 0.00 | 85 | 1009.1 |
| 20260505100744 | 8 | 304 | 3.2 | 6.4 | 0.00 | 0.00 | 0.00 | 85 | 1009.0 |
| 20260505100645 | 8 | 304 | 3.2 | 6.4 | 0.00 | 0.00 | 0.00 | 85 | 1009.0 |
| 20260505100602 | 8 | 304 | 3.2 | 6.4 | 0.00 | 0.00 | 0.00 | 85 | 1008.9 |
| 20260505100553 | 8 | 304 | 3.2 | 6.4 | 0.00 | 0.00 | 0.00 | 85 | 1008.8 |
| 20260505100333 | 8 | 304 | 3.2 | 6.4 | 0.00 | 0.00 | 0.00 | 85 | 1008.8 |
| 20260505100249 | 8 | 304 | 3.2 | 6.4 | 0.00 | 0.00 | 0.00 | 86 | 1008.7 |
| 20260505100242 | 8 | 304 | 3.2 | 6.4 | 0.00 | 0.00 | 0.00 | 86 | 1008.7 |
| 20260505100027 | 8 | 304 | 3.2 | 6.4 | 0.00 | 0.00 | 0.00 | 86 | 1008.8 |
| 20260505095920 | 8 | 304 | 3.2 | 6.4 | 0.00 | 0.00 | 0.00 | 86 | 1008.7 |
| 20260505095821 | 8 | 304 | 3.2 | 6.4 | 0.00 | 0.00 | 0.00 | 86 | 1008.7 |
| 20260505095716 | 8 | 304 | 3.2 | 6.4 | 0.00 | 0.00 | 0.00 | 86 | 1008.6 |
| 20260505095615 | 8 | 304 | 3.2 | 6.4 | 0.00 | 0.00 | 0.00 | 86 | 1008.6 |
| 20260505095509 | 8 | 304 | 3.2 | 6.4 | 0.00 | 0.00 | 0.00 | 86 | 1008.7 |
| 20260505095409 | 8 | 304 | 3.2 | 6.4 | 0.00 | 0.00 | 0.00 | 86 | 1008.7 |
| 20260505095304 | 8 | 304 | 3.2 | 6.4 | 0.00 | 0.00 | 0.00 | 86 | 1008.7 |
| 20260505095202 | 8 | 304 | 3.2 | 6.4 | 0.00 | 0.00 | 0.00 | 86 | 1008.7 |
| 20260505095056 | 8 | 304 | 3.2 | 6.4 | 0.00 | 0.00 | 0.00 | 86 | 1008.7 |
| 20260505094957 | 8 | 304 | 3.2 | 6.4 | 0.00 | 0.00 | 0.00 | 86 | 1008.7 |
| 20260505094850 | 8 | 304 | 3.2 | 6.4 | 0.00 | 0.00 | 0.00 | 86 | 1008.7 |
| 20260505094751 | 8 | 304 | 3.2 | 6.4 | 0.00 | 0.00 | 0.00 | 86 | 1008.7 |
| 20260505094644 | 8 | 304 | 1.6 | 6.4 | 0.00 | 0.00 | 0.00 | 86 | 1008.7 |
| 20260505094601 | 8 | 304 | 1.6 | 6.4 | 0.00 | 0.00 | 0.00 | 86 | 1008.7 |
| 20260505094555 | 8 | 304 | 1.6 | 6.4 | 0.00 | 0.00 | 0.00 | 86 | 1008.7 |
| 20260505094339 | 8 | 304 | 1.6 | 6.4 | 0.00 | 0.00 | 0.00 | 86 | 1008.7 |
| 20260505094233 | 8 | 304 | 1.6 | 6.4 | 0.00 | 0.00 | 0.00 | 86 | 1008.7 |
| 20260505094133 | 8 | 304 | 1.6 | 6.4 | 0.00 | 0.00 | 0.00 | 86 | 1008.8 |
| 20260505094027 | 8 | 304 | 1.6 | 6.4 | 0.00 | 0.00 | 0.00 | 86 | 1008.8 |
| 20260505093927 | 8 | 304 | 1.6 | 6.4 | 0.00 | 0.00 | 0.00 | 86 | 1008.8 |
| 20260505093820 | 8 | 304 | 3.2 | 6.4 | 0.00 | 0.00 | 0.00 | 87 | 1008.8 |
| 20260505093721 | 8 | 304 | 3.2 | 6.4 | 0.00 | 0.00 | 0.00 | 87 | 1008.8 |
| 20260505093614 | 8 | 304 | 3.2 | 6.4 | 0.00 | 0.00 | 0.00 | 87 | 1008.8 |
| 20260505093515 | 8 | 304 | 3.2 | 6.4 | 0.00 | 0.00 | 0.00 | 87 | 1008.8 |
| 20260505093408 | 8 | 304 | 4.8 | 6.4 | 0.00 | 0.00 | 0.00 | 87 | 1008.8 |
| 20260505093309 | 9 | 304 | 4.8 | 6.4 | 0.00 | 0.00 | 0.00 | 87 | 1008.8 |
| 20260505093202 | 9 | 304 | 4.8 | 6.4 | 0.00 | 0.00 | 0.00 | 87 | 1008.8 |
| 20260505093119 | 9 | 306 | 4.8 | 6.4 | 0.00 | 0.00 | 0.00 | 87 | 1008.7 |
| 20260505093113 | 9 | 306 | 4.8 | 6.4 | 0.00 | 0.00 | 0.00 | 87 | 1008.7 |
| 20260505092858 | 9 | 307 | 4.8 | 6.4 | 0.00 | 0.00 | 0.00 | 87 | 1008.7 |
| 20260505092750 | 9 | 306 | 4.8 | 6.4 | 0.00 | 0.00 | 0.00 | 87 | 1008.6 |
| 20260505092651 | 9 | 306 | 3.2 | 6.4 | 0.00 | 0.00 | 0.00 | 87 | 1008.6 |
| 20260505092546 | 9 | 306 | 3.2 | 6.4 | 0.00 | 0.00 | 0.00 | 87 | 1008.6 |
| 20260505092445 | 9 | 306 | 3.2 | 6.4 | 0.00 | 0.00 | 0.00 | 87 | 1008.7 |
| 20260505092339 | 9 | 306 | 3.2 | 6.4 | 0.00 | 0.00 | 0.00 | 87 | 1008.7 |
| 20260505092239 | 9 | 306 | 3.2 | 6.4 | 0.00 | 0.00 | 0.00 | 87 | 1008.6 |
| 20260505092133 | 9 | 306 | 3.2 | 6.4 | 0.00 | 0.00 | 0.00 | 87 | 1008.6 |
| 20260505092033 | 9 | 306 | 3.2 | 6.4 | 0.00 | 0.00 | 0.00 | 87 | 1008.5 |
| 20260505091926 | 9 | 306 | 3.2 | 6.4 | 0.00 | 0.00 | 0.00 | 87 | 1008.6 |
| 20260505091827 | 9 | 306 | 4.8 | 6.4 | 0.00 | 0.00 | 0.00 | 87 | 1008.6 |
| 20260505091720 | 9 | 306 | 4.8 | 6.4 | 0.00 | 0.00 | 0.00 | 87 | 1008.6 |
| 20260505091621 | 9 | 306 | 4.8 | 6.4 | 0.00 | 0.00 | 0.00 | 87 | 1008.6 |
| 20260505091536 | 9 | 306 | 4.8 | 6.4 | 0.00 | 0.00 | 0.00 | 87 | 1008.6 |
| 20260505091529 | 9 | 306 | 4.8 | 6.4 | 0.00 | 0.00 | 0.00 | 87 | 1008.6 |
| 20260505091309 | 9 | 306 | 4.8 | 6.4 | 0.00 | 0.00 | 0.00 | 87 | 1008.6 |
| 20260505091209 | 9 | 306 | 4.8 | 6.4 | 0.00 | 0.00 | 0.00 | 87 | 1008.6 |
| 20260505091104 | 9 | 306 | 4.8 | 6.4 | 0.00 | 0.00 | 0.00 | 87 | 1008.6 |
| 20260505091002 | 9 | 306 | 4.8 | 6.4 | 0.00 | 0.00 | 0.00 | 87 | 1008.6 |
| 20260505090856 | 9 | 305 | 3.2 | 6.4 | 0.00 | 0.00 | 0.00 | 87 | 1008.6 |
| 20260505090758 | 9 | 304 | 3.2 | 6.4 | 0.00 | 0.00 | 0.00 | 87 | 1008.5 |
| 20260505090713 | 9 | 304 | 3.2 | 6.4 | 0.00 | 0.00 | 0.00 | 87 | 1008.6 |
| 20260505090705 | 9 | 304 | 3.2 | 6.4 | 0.00 | 0.00 | 0.00 | 87 | 1008.5 |
| 20260505090445 | 9 | 304 | 3.2 | 6.4 | 0.00 | 0.00 | 0.00 | 87 | 1008.5 |
| 20260505090345 | 9 | 304 | 3.2 | 6.4 | 0.00 | 0.00 | 0.00 | 87 | 1008.6 |
| 20260505090239 | 9 | 304 | 3.2 | 6.4 | 0.00 | 0.00 | 0.00 | 87 | 1008.6 |
| 20260505090139 | 9 | 304 | 3.2 | 6.4 | 0.00 | 0.00 | 0.00 | 87 | 1008.5 |
| 20260505090032 | 9 | 302 | 3.2 | 6.4 | 0.00 | 0.00 | 0.00 | 87 | 1008.5 |
| 20260505085933 | 9 | 301 | 1.6 | 4.8 | 0.00 | 0.00 | 0.00 | 87 | 1008.5 |
| 20260505085828 | 9 | 301 | 1.6 | 4.8 | 0.00 | 0.00 | 0.00 | 87 | 1008.5 |
| 20260505085727 | 10 | 301 | 1.6 | 4.8 | 0.00 | 0.00 | 0.00 | 87 | 1008.5 |
| 20260505085621 | 10 | 301 | 1.6 | 4.8 | 0.00 | 0.00 | 0.00 | 87 | 1008.5 |
| 20260505085521 | 10 | 301 | 1.6 | 4.8 | 0.00 | 0.00 | 0.00 | 87 | 1008.5 |
| 20260505085416 | 10 | 301 | 1.6 | 4.8 | 0.00 | 0.00 | 0.00 | 87 | 1008.5 |
| 20260505085315 | 10 | 301 | 1.6 | 4.8 | 0.00 | 0.00 | 0.00 | 87 | 1008.4 |
| 20260505085208 | 10 | 301 | 1.6 | 4.8 | 0.00 | 0.00 | 0.00 | 87 | 1008.5 |
| 20260505085109 | 10 | 301 | 1.6 | 4.8 | 0.00 | 0.00 | 0.00 | 87 | 1008.4 |
| 20260505085024 | 10 | 301 | 3.2 | 4.8 | 0.00 | 0.00 | 0.00 | 87 | 1008.4 |
| 20260505085016 | 10 | 301 | 3.2 | 4.8 | 0.00 | 0.00 | 0.00 | 87 | 1008.5 |
| 20260505084756 | 10 | 301 | 3.2 | 4.8 | 0.00 | 0.00 | 0.00 | 87 | 1008.4 |
| 20260505084714 | 10 | 301 | 3.2 | 4.8 | 0.00 | 0.00 | 0.00 | 87 | 1008.4 |
| 20260505084707 | 10 | 301 | 3.2 | 4.8 | 0.00 | 0.00 | 0.00 | 87 | 1008.4 |
| 20260505084451 | 10 | 301 | 3.2 | 4.8 | 0.00 | 0.00 | 0.00 | 87 | 1008.4 |
| 20260505084344 | 10 | 301 | 3.2 | 4.8 | 0.00 | 0.00 | 0.00 | 87 | 1008.4 |
| 20260505084244 | 10 | 301 | 3.2 | 4.8 | 0.00 | 0.00 | 0.00 | 87 | 1008.4 |
| 20260505084138 | 10 | 301 | 3.2 | 4.8 | 0.00 | 0.00 | 0.00 | 86 | 1008.4 |
| 20260505084039 | 10 | 301 | 3.2 | 4.8 | 0.00 | 0.00 | 0.00 | 86 | 1008.5 |
| 20260505083956 | 10 | 301 | 3.2 | 4.8 | 0.00 | 0.00 | 0.00 | 86 | 1008.5 |
| 20260505083949 | 10 | 301 | 3.2 | 4.8 | 0.00 | 0.00 | 0.00 | 86 | 1008.5 |
| 20260505083726 | 10 | 301 | 3.2 | 4.8 | 0.00 | 0.00 | 0.00 | 86 | 1008.5 |
| 20260505083627 | 10 | 301 | 3.2 | 4.8 | 0.00 | 0.00 | 0.00 | 86 | 1008.5 |
| 20260505083520 | 10 | 301 | 1.6 | 4.8 | 0.00 | 0.00 | 0.00 | 86 | 1008.5 |
| 20260505083421 | 10 | 301 | 1.6 | 4.8 | 0.00 | 0.00 | 0.00 | 86 | 1008.5 |
| 20260505083315 | 10 | 301 | 1.6 | 4.8 | 0.00 | 0.00 | 0.00 | 86 | 1008.5 |
| 20260505083215 | 10 | 301 | 1.6 | 4.8 | 0.00 | 0.00 | 0.00 | 86 | 1008.6 |
| 20260505083109 | 10 | 301 | 1.6 | 4.8 | 0.00 | 0.00 | 0.00 | 86 | 1008.6 |
| 20260505083009 | 10 | 301 | 1.6 | 4.8 | 0.00 | 0.00 | 0.00 | 86 | 1008.6 |
| 20260505082904 | 10 | 301 | 1.6 | 4.8 | 0.00 | 0.00 | 0.00 | 86 | 1008.6 |
| 20260505082804 | 10 | 301 | 1.6 | 4.8 | 0.00 | 0.00 | 0.00 | 86 | 1008.6 |
| 20260505082717 | 10 | 301 | 1.6 | 4.8 | 0.00 | 0.00 | 0.00 | 86 | 1008.6 |
| 20260505082710 | 10 | 301 | 1.6 | 4.8 | 0.00 | 0.00 | 0.00 | 86 | 1008.6 |
| 20260505082452 | 10 | 301 | 3.2 | 4.8 | 0.00 | 0.00 | 0.00 | 86 | 1008.6 |
| 20260505082350 | 10 | 301 | 3.2 | 4.8 | 0.00 | 0.00 | 0.00 | 86 | 1008.6 |
| 20260505082323 | 10 | 301 | 3.2 | 4.8 | 0.00 | 0.00 | 0.00 | 86 | 1008.5 |
| 20260505082317 | 10 | 301 | 3.2 | 4.8 | 0.00 | 0.00 | 0.00 | 86 | 1008.4 |
| 20260505082309 | 10 | 301 | 3.2 | 4.8 | 0.00 | 0.00 | 0.00 | 86 | 1008.5 |
| 20260505081939 | 10 | 301 | 3.2 | 4.8 | 0.00 | 0.00 | 0.00 | 86 | 1008.4 |
| 20260505081833 | 10 | 301 | 3.2 | 4.8 | 0.00 | 0.00 | 0.00 | 86 | 1008.4 |
| 20260505081750 | 10 | 301 | 3.2 | 4.8 | 0.00 | 0.00 | 0.00 | 86 | 1008.4 |
| 20260505081744 | 10 | 301 | 3.2 | 4.8 | 0.00 | 0.00 | 0.00 | 86 | 1008.4 |
| 20260505081542 | 10 | 301 | 3.2 | 4.8 | 0.00 | 0.00 | 0.00 | 86 | 1008.4 |
| 20260505081536 | 10 | 301 | 3.2 | 4.8 | 0.00 | 0.00 | 0.00 | 86 | 1008.4 |
| 20260505081320 | 10 | 301 | 3.2 | 4.8 | 0.00 | 0.00 | 0.00 | 86 | 1008.3 |
| 20260505081216 | 10 | 301 | 3.2 | 4.8 | 0.00 | 0.00 | 0.00 | 86 | 1008.4 |
| 20260505081115 | 10 | 301 | 3.2 | 4.8 | 0.00 | 0.00 | 0.00 | 86 | 1008.3 |
| 20260505081008 | 10 | 301 | 1.6 | 4.8 | 0.00 | 0.00 | 0.00 | 86 | 1008.4 |
| 20260505080910 | 10 | 301 | 1.6 | 4.8 | 0.00 | 0.00 | 0.00 | 85 | 1008.4 |
| 20260505080803 | 10 | 301 | 1.6 | 4.8 | 0.00 | 0.00 | 0.00 | 85 | 1008.4 |
| 20260505080743 | 10 | 301 | 0.0 | 3.2 | 0.00 | 0.00 | 0.00 | 85 | 1008.3 |
| 20260505080732 | 10 | 301 | 1.6 | 3.2 | 0.00 | 0.00 | 0.00 | 85 | 1008.3 |
| 20260505080610 | 10 | 301 | 0.0 | 3.2 | 0.00 | 0.00 | 0.00 | 85 | 1008.4 |
| 20260505080352 | 10 | 301 | 0.0 | 1.6 | 0.00 | 0.00 | 0.00 | 85 | 1008.4 |
| 20260505080250 | 10 | 301 | 0.0 | 3.2 | 0.00 | 0.00 | 0.00 | 85 | 1008.4 |
| 20260505080144 | 11 | 301 | 0.0 | 3.2 | 0.00 | 0.00 | 0.00 | 85 | 1008.4 |
| 20260505080045 | 11 | 301 | 0.0 | 3.2 | 0.00 | 0.00 | 0.00 | 85 | 1008.4 |
| 20260505075940 | 11 | 301 | 0.0 | 3.2 | 0.00 | 0.00 | 0.00 | 85 | 1008.4 |
| 20260505075839 | 11 | 301 | 0.0 | 3.2 | 0.00 | 0.00 | 0.00 | 85 | 1008.3 |
| 20260505075732 | 11 | 301 | 1.6 | 3.2 | 0.00 | 0.00 | 0.00 | 84 | 1008.3 |
| 20260505075633 | 11 | 301 | 1.6 | 3.2 | 0.00 | 0.00 | 0.00 | 84 | 1008.4 |
| 20260505075526 | 11 | 301 | 0.0 | 3.2 | 0.00 | 0.00 | 0.00 | 84 | 1008.4 |
| 20260505075427 | 11 | 301 | 0.0 | 3.2 | 0.00 | 0.00 | 0.00 | 84 | 1008.4 |
| 20260505075344 | 11 | 301 | 1.6 | 3.2 | 0.00 | 0.00 | 0.00 | 83 | 1008.3 |
| 20260505075335 | 11 | 301 | 1.6 | 3.2 | 0.00 | 0.00 | 0.00 | 83 | 1008.4 |
| 20260505075136 | 11 | 301 | 1.6 | 3.2 | 0.00 | 0.00 | 0.00 | 83 | 1008.3 |
| 20260505075129 | 11 | 301 | 1.6 | 3.2 | 0.00 | 0.00 | 0.00 | 83 | 1008.3 |
| 20260505074908 | 11 | 301 | 1.6 | 3.2 | 0.00 | 0.00 | 0.00 | 84 | 1008.3 |
| 20260505074826 | 11 | 301 | 1.6 | 3.2 | 0.00 | 0.00 | 0.00 | 84 | 1008.3 |
| 20260505074820 | 11 | 301 | 1.6 | 3.2 | 0.00 | 0.00 | 0.00 | 84 | 1008.2 |
| 20260505074655 | 11 | 301 | 1.6 | 6.4 | 0.00 | 0.00 | 0.00 | 83 | 1008.3 |
| 20260505074651 | 11 | 301 | 1.6 | 6.4 | 0.00 | 0.00 | 0.00 | 83 | 1008.2 |
| 20260505074645 | 11 | 301 | 1.6 | 6.4 | 0.00 | 0.00 | 0.00 | 83 | 1008.2 |
| 20260505074636 | 11 | 301 | 1.6 | 6.4 | 0.00 | 0.00 | 0.00 | 84 | 1008.3 |
| 20260505074151 | 11 | 301 | 1.6 | 6.4 | 0.00 | 0.00 | 0.00 | 83 | 1008.3 |
| 20260505074109 | 11 | 301 | 1.6 | 6.4 | 0.00 | 0.00 | 0.00 | 83 | 1008.1 |
| 20260505074101 | 11 | 301 | 1.6 | 6.4 | 0.00 | 0.00 | 0.00 | 83 | 1008.2 |
| 20260505073840 | 11 | 301 | 1.6 | 6.4 | 0.00 | 0.00 | 0.00 | 83 | 1008.2 |
| 20260505073739 | 11 | 301 | 1.6 | 6.4 | 0.00 | 0.00 | 0.00 | 83 | 1008.3 |
| 20260505073632 | 11 | 301 | 1.6 | 6.4 | 0.00 | 0.00 | 0.00 | 82 | 1008.2 |
| 20260505073533 | 11 | 301 | 3.2 | 6.4 | 0.00 | 0.00 | 0.00 | 82 | 1008.2 |
| 20260505073428 | 12 | 301 | 3.2 | 6.4 | 0.00 | 0.00 | 0.00 | 82 | 1008.2 |
| 20260505073327 | 12 | 301 | 3.2 | 6.4 | 0.00 | 0.00 | 0.00 | 82 | 1008.2 |
| 20260505073221 | 12 | 301 | 3.2 | 6.4 | 0.00 | 0.00 | 0.00 | 82 | 1008.2 |
| 20260505073121 | 12 | 301 | 3.2 | 6.4 | 0.00 | 0.00 | 0.00 | 82 | 1008.1 |
| 20260505073036 | 12 | 301 | 4.8 | 6.4 | 0.00 | 0.00 | 0.00 | 82 | 1008.1 |
| 20260505073029 | 12 | 301 | 4.8 | 6.4 | 0.00 | 0.00 | 0.00 | 82 | 1008.1 |
| 20260505072809 | 12 | 301 | 4.8 | 6.4 | 0.00 | 0.00 | 0.00 | 82 | 1008.1 |
| 20260505072708 | 12 | 301 | 4.8 | 6.4 | 0.00 | 0.00 | 0.00 | 82 | 1008.0 |
| 20260505072603 | 12 | 301 | 4.8 | 6.4 | 0.00 | 0.00 | 0.00 | 82 | 1008.0 |
| 20260505072503 | 12 | 301 | 4.8 | 6.4 | 0.00 | 0.00 | 0.00 | 82 | 1008.0 |
| 20260505072420 | 12 | 301 | 3.2 | 6.4 | 0.00 | 0.00 | 0.00 | 82 | 1008.0 |
| 20260505072412 | 12 | 301 | 4.8 | 6.4 | 0.00 | 0.00 | 0.00 | 82 | 1008.0 |
| 20260505072150 | 12 | 301 | 4.8 | 6.4 | 0.00 | 0.00 | 0.00 | 82 | 1008.0 |
| 20260505072051 | 12 | 301 | 4.8 | 6.4 | 0.00 | 0.00 | 0.00 | 82 | 1008.1 |
| 20260505071945 | 12 | 301 | 4.8 | 6.4 | 0.00 | 0.00 | 0.00 | 82 | 1008.0 |
| 20260505071844 | 12 | 301 | 3.2 | 6.4 | 0.00 | 0.00 | 0.00 | 82 | 1008.0 |
| 20260505071801 | 12 | 301 | 3.2 | 6.4 | 0.00 | 0.00 | 0.00 | 82 | 1008.0 |
| 20260505071754 | 12 | 301 | 3.2 | 6.4 | 0.00 | 0.00 | 0.00 | 82 | 1008.0 |
| 20260505071533 | 12 | 301 | 3.2 | 6.4 | 0.00 | 0.00 | 0.00 | 82 | 1008.0 |
| 20260505071433 | 12 | 301 | 1.6 | 4.8 | 0.00 | 0.00 | 0.00 | 82 | 1008.0 |
| 20260505071406 | 12 | 301 | 1.6 | 4.8 | 0.00 | 0.00 | 0.00 | 82 | 1008.0 |
| 20260505071400 | 12 | 301 | 1.6 | 4.8 | 0.00 | 0.00 | 0.00 | 82 | 1008.0 |
| 20260505071351 | 12 | 301 | 1.6 | 4.8 | 0.00 | 0.00 | 0.00 | 82 | 1008.0 |
| 20260505071021 | 12 | 301 | 1.6 | 4.8 | 0.00 | 0.00 | 0.00 | 82 | 1008.0 |
| 20260505070914 | 12 | 301 | 1.6 | 3.2 | 0.00 | 0.00 | 0.00 | 81 | 1008.0 |
| 20260505070815 | 12 | 301 | 1.6 | 3.2 | 0.00 | 0.00 | 0.00 | 81 | 1008.0 |
| 20260505070709 | 12 | 301 | 1.6 | 3.2 | 0.00 | 0.00 | 0.00 | 81 | 1008.1 |
| 20260505070624 | 12 | 301 | 1.6 | 3.2 | 0.00 | 0.00 | 0.00 | 81 | 1008.1 |
| 20260505070617 | 12 | 301 | 1.6 | 3.2 | 0.00 | 0.00 | 0.00 | 81 | 1008.0 |
| 20260505070403 | 12 | 301 | 1.6 | 3.2 | 0.00 | 0.00 | 0.00 | 81 | 1008.1 |
| 20260505070256 | 12 | 301 | 1.6 | 3.2 | 0.00 | 0.00 | 0.00 | 81 | 1008.1 |
| 20260505070157 | 12 | 301 | 1.6 | 3.2 | 0.00 | 0.00 | 0.00 | 81 | 1008.1 |
| 20260505070111 | 12 | 301 | 0.0 | 3.2 | 0.00 | 0.00 | 0.00 | 81 | 1008.1 |
| 20260505070105 | 12 | 301 | 0.0 | 3.2 | 0.00 | 0.00 | 0.00 | 81 | 1008.1 |
| 20260505065845 | 12 | 301 | 0.0 | 3.2 | 0.00 | 0.00 | 0.00 | 81 | 1008.2 |
| 20260505065745 | 12 | 301 | 0.0 | 3.2 | 0.00 | 0.00 | 0.00 | 80 | 1008.1 |
| 20260505065658 | 12 | 301 | 0.0 | 3.2 | 0.00 | 0.00 | 0.00 | 80 | 1008.1 |
| 20260505065652 | 12 | 301 | 0.0 | 3.2 | 0.00 | 0.00 | 0.00 | 80 | 1008.1 |
| 20260505065432 | 12 | 301 | 0.0 | 3.2 | 0.00 | 0.00 | 0.00 | 80 | 1008.1 |
| 20260505065333 | 12 | 301 | 0.0 | 3.2 | 0.00 | 0.00 | 0.00 | 80 | 1008.1 |
| 20260505065226 | 12 | 301 | 0.0 | 3.2 | 0.00 | 0.00 | 0.00 | 80 | 1008.1 |
| 20260505065127 | 12 | 301 | 0.0 | 3.2 | 0.00 | 0.00 | 0.00 | 80 | 1008.1 |
| 20260505065021 | 12 | 301 | 1.6 | 3.2 | 0.00 | 0.00 | 0.00 | 80 | 1008.2 |
| 20260505064920 | 12 | 301 | 0.0 | 3.2 | 0.00 | 0.00 | 0.00 | 80 | 1008.1 |
| 20260505064837 | 12 | 301 | 0.0 | 4.8 | 0.00 | 0.00 | 0.00 | 80 | 1008.1 |
| 20260505064829 | 12 | 301 | 0.0 | 4.8 | 0.00 | 0.00 | 0.00 | 80 | 1008.1 |
| 20260505064609 | 12 | 301 | 0.0 | 4.8 | 0.00 | 0.00 | 0.00 | 80 | 1008.1 |
| 20260505064509 | 13 | 301 | 0.0 | 4.8 | 0.00 | 0.00 | 0.00 | 80 | 1008.1 |
| 20260505064403 | 13 | 301 | 0.0 | 4.8 | 0.00 | 0.00 | 0.00 | 79 | 1008.1 |
| 20260505064303 | 13 | 301 | 0.0 | 4.8 | 0.00 | 0.00 | 0.00 | 79 | 1008.2 |
| 20260505064156 | 13 | 301 | 0.0 | 4.8 | 0.00 | 0.00 | 0.00 | 79 | 1008.2 |
| 20260505064057 | 13 | 301 | 0.0 | 4.8 | 0.00 | 0.00 | 0.00 | 79 | 1008.2 |
| 20260505063950 | 13 | 301 | 0.0 | 4.8 | 0.00 | 0.00 | 0.00 | 79 | 1008.2 |
| 20260505063907 | 13 | 301 | 1.6 | 4.8 | 0.00 | 0.00 | 0.00 | 79 | 1008.2 |
| 20260505063900 | 13 | 301 | 1.6 | 4.8 | 0.00 | 0.00 | 0.00 | 79 | 1008.2 |
| 20260505063645 | 13 | 301 | 1.6 | 6.4 | 0.00 | 0.00 | 0.00 | 79 | 1008.2 |
| 20260505063538 | 13 | 301 | 1.6 | 6.4 | 0.00 | 0.00 | 0.00 | 79 | 1008.2 |
| 20260505063439 | 13 | 301 | 1.6 | 6.4 | 0.00 | 0.00 | 0.00 | 79 | 1008.2 |
| 20260505063332 | 13 | 301 | 1.6 | 6.4 | 0.00 | 0.00 | 0.00 | 79 | 1008.2 |
| 20260505063233 | 13 | 301 | 1.6 | 6.4 | 0.00 | 0.00 | 0.00 | 79 | 1008.2 |
| 20260505063128 | 13 | 301 | 1.6 | 6.4 | 0.00 | 0.00 | 0.00 | 79 | 1008.3 |
| 20260505063122 | 13 | 301 | 1.6 | 6.4 | 0.00 | 0.00 | 0.00 | 78 | 1008.3 |
| 20260505063117 | 13 | 301 | 3.2 | 6.4 | 0.00 | 0.00 | 0.00 | 78 | 1008.3 |
| 20260505063110 | 13 | 301 | 3.2 | 6.4 | 0.00 | 0.00 | 0.00 | 78 | 1008.3 |
| 20260505063100 | 13 | 301 | 1.6 | 6.4 | 0.00 | 0.00 | 0.00 | 78 | 1008.3 |
| 20260505062615 | 13 | 301 | 3.2 | 6.4 | 0.00 | 0.00 | 0.00 | 78 | 1008.3 |
| 20260505062508 | 13 | 300 | 3.2 | 6.4 | 0.00 | 0.00 | 0.00 | 78 | 1008.3 |
| 20260505062409 | 13 | 300 | 3.2 | 6.4 | 0.00 | 0.00 | 0.00 | 78 | 1008.3 |
| 20260505062323 | 13 | 301 | 4.8 | 6.4 | 0.00 | 0.00 | 0.00 | 77 | 1008.3 |
| 20260505062317 | 13 | 300 | 4.8 | 6.4 | 0.00 | 0.00 | 0.00 | 77 | 1008.3 |
| 20260505062135 | 13 | 300 | 4.8 | 6.4 | 0.00 | 0.00 | 0.00 | 77 | 1008.3 |
| 20260505062124 | 13 | 300 | 4.8 | 6.4 | 0.00 | 0.00 | 0.00 | 77 | 1008.3 |
| 20260505062006 | 13 | 300 | 4.8 | 6.4 | 0.00 | 0.00 | 0.00 | 77 | 1008.3 |
| 20260505061751 | 13 | 301 | 4.8 | 6.4 | 0.00 | 0.00 | 0.00 | 77 | 1008.3 |
| 20260505061645 | 13 | 300 | 4.8 | 6.4 | 0.00 | 0.00 | 0.00 | 77 | 1008.2 |
| 20260505061544 | 13 | 300 | 4.8 | 6.4 | 0.00 | 0.00 | 0.00 | 77 | 1008.3 |
| 20260505061502 | 13 | 238 | 3.2 | 6.4 | 0.00 | 0.00 | 0.00 | 77 | 1008.3 |
| 20260505061454 | 13 | 296 | 3.2 | 6.4 | 0.00 | 0.00 | 0.00 | 77 | 1008.3 |
| 20260505061233 | 13 | 221 | 3.2 | 6.4 | 0.00 | 0.00 | 0.00 | 77 | 1008.2 |
| 20260505061133 | 13 | 203 | 1.6 | 4.8 | 0.00 | 0.00 | 0.00 | 77 | 1008.3 |
| 20260505061028 | 13 | 203 | 1.6 | 4.8 | 0.00 | 0.00 | 0.00 | 77 | 1008.3 |
| 20260505060927 | 13 | 202 | 1.6 | 4.8 | 0.00 | 0.00 | 0.00 | 76 | 1008.3 |
| 20260505060820 | 13 | 202 | 1.6 | 4.8 | 0.00 | 0.00 | 0.00 | 76 | 1008.3 |
| 20260505060720 | 13 | 202 | 1.6 | 6.4 | 0.00 | 0.00 | 0.00 | 76 | 1008.3 |
| 20260505060614 | 13 | 202 | 0.0 | 6.4 | 0.00 | 0.00 | 0.00 | 76 | 1008.4 |
| 20260505060515 | 13 | 202 | 0.0 | 6.4 | 0.00 | 0.00 | 0.00 | 75 | 1008.3 |
| 20260505060410 | 13 | 202 | 0.0 | 6.4 | 0.00 | 0.00 | 0.00 | 75 | 1008.3 |
| 20260505060309 | 13 | 202 | 0.0 | 6.4 | 0.00 | 0.00 | 0.00 | 75 | 1008.3 |
| 20260505060205 | 13 | 202 | 0.0 | 6.4 | 0.00 | 0.00 | 0.00 | 75 | 1008.3 |
| 20260505060103 | 13 | 202 | 1.6 | 6.4 | 0.00 | 0.00 | 0.00 | 75 | 1008.3 |
| 20260505055956 | 13 | 202 | 1.6 | 6.4 | 0.00 | 0.00 | 0.00 | 75 | 1008.3 |
| 20260505055857 | 13 | 202 | 1.6 | 6.4 | 0.00 | 0.00 | 0.00 | 75 | 1008.3 |
| 20260505055830 | 13 | 202 | 1.6 | 6.4 | 0.00 | 0.00 | 0.00 | 75 | 1008.4 |
| 20260505055824 | 13 | 202 | 3.2 | 6.4 | 0.00 | 0.00 | 0.00 | 75 | 1008.3 |
| 20260505055815 | 13 | 202 | 1.6 | 6.4 | 0.00 | 0.00 | 0.00 | 75 | 1008.3 |
| 20260505055445 | 13 | 202 | 3.2 | 6.4 | 0.00 | 0.00 | 0.00 | 75 | 1008.3 |
| 20260505055338 | 13 | 202 | 3.2 | 6.4 | 0.00 | 0.00 | 0.00 | 75 | 1008.3 |
| 20260505055239 | 13 | 202 | 3.2 | 6.4 | 0.00 | 0.00 | 0.00 | 75 | 1008.3 |
| 20260505055133 | 13 | 202 | 4.8 | 6.4 | 0.00 | 0.00 | 0.00 | 75 | 1008.3 |
| 20260505055032 | 13 | 202 | 4.8 | 6.4 | 0.00 | 0.00 | 0.00 | 75 | 1008.3 |
| 20260505055005 | 13 | 193 | 3.2 | 6.4 | 0.00 | 0.00 | 0.00 | 75 | 1008.3 |
| 20260505054955 | 13 | 202 | 4.8 | 6.4 | 0.00 | 0.00 | 0.00 | 75 | 1008.3 |
| 20260505054837 | 13 | 202 | 3.2 | 6.4 | 0.00 | 0.00 | 0.00 | 75 | 1008.3 |
| 20260505054621 | 13 | 188 | 3.2 | 6.4 | 0.00 | 0.00 | 0.00 | 75 | 1008.3 |
| 20260505054537 | 13 | 186 | 1.6 | 4.8 | 0.00 | 0.00 | 0.00 | 75 | 1008.3 |
| 20260505054529 | 13 | 187 | 3.2 | 6.4 | 0.00 | 0.00 | 0.00 | 75 | 1008.3 |
| 20260505054308 | 13 | 184 | 1.6 | 4.8 | 0.00 | 0.00 | 0.00 | 75 | 1008.3 |
| 20260505054210 | 13 | 184 | 1.6 | 4.8 | 0.00 | 0.00 | 0.00 | 75 | 1008.3 |
| 20260505054102 | 13 | 184 | 1.6 | 4.8 | 0.00 | 0.00 | 0.00 | 75 | 1008.3 |
| 20260505054019 | 13 | 183 | 0.0 | 3.2 | 0.00 | 0.00 | 0.00 | 75 | 1008.3 |
| 20260505054013 | 13 | 184 | 0.0 | 3.2 | 0.00 | 0.00 | 0.00 | 75 | 1008.3 |
| 20260505053757 | 13 | 183 | 0.0 | 1.6 | 0.00 | 0.00 | 0.00 | 74 | 1008.3 |
| 20260505053650 | 13 | 183 | 0.0 | 1.6 | 0.00 | 0.00 | 0.00 | 74 | 1008.4 |
| 20260505053552 | 13 | 183 | 0.0 | 1.6 | 0.00 | 0.00 | 0.00 | 74 | 1008.4 |
| 20260505053445 | 13 | 183 | 0.0 | 1.6 | 0.00 | 0.00 | 0.00 | 74 | 1008.4 |
| 20260505053345 | 13 | 183 | 0.0 | 1.6 | 0.00 | 0.00 | 0.00 | 74 | 1008.3 |
| 20260505053239 | 13 | 183 | 0.0 | 1.6 | 0.00 | 0.00 | 0.00 | 74 | 1008.3 |
| 20260505053139 | 13 | 183 | 0.0 | 1.6 | 0.00 | 0.00 | 0.00 | 74 | 1008.3 |
| 20260505053032 | 13 | 183 | 0.0 | 1.6 | 0.00 | 0.00 | 0.00 | 74 | 1008.3 |
| 20260505052933 | 13 | 183 | 0.0 | 4.8 | 0.00 | 0.00 | 0.00 | 74 | 1008.3 |
| 20260505052827 | 13 | 183 | 0.0 | 4.8 | 0.00 | 0.00 | 0.00 | 74 | 1008.4 |
| 20260505052727 | 13 | 183 | 0.0 | 4.8 | 0.00 | 0.00 | 0.00 | 74 | 1008.4 |
| 20260505052620 | 13 | 183 | 0.0 | 4.8 | 0.00 | 0.00 | 0.00 | 74 | 1008.4 |
| 20260505052521 | 13 | 183 | 0.0 | 4.8 | 0.00 | 0.00 | 0.00 | 74 | 1008.4 |
| 20260505052414 | 13 | 183 | 0.0 | 4.8 | 0.00 | 0.00 | 0.00 | 74 | 1008.4 |
| 20260505052316 | 13 | 183 | 0.0 | 4.8 | 0.00 | 0.00 | 0.00 | 74 | 1008.4 |
| 20260505052208 | 13 | 183 | 1.6 | 4.8 | 0.00 | 0.00 | 0.00 | 74 | 1008.4 |
| 20260505052109 | 13 | 183 | 1.6 | 4.8 | 0.00 | 0.00 | 0.00 | 74 | 1008.4 |
| 20260505052002 | 13 | 183 | 1.6 | 4.8 | 0.00 | 0.00 | 0.00 | 74 | 1008.4 |
| 20260505051903 | 13 | 183 | 1.6 | 6.4 | 0.00 | 0.00 | 0.00 | 74 | 1008.4 |
| 20260505051817 | 13 | 183 | 1.6 | 6.4 | 0.00 | 0.00 | 0.00 | 74 | 1008.5 |
| 20260505051810 | 13 | 183 | 1.6 | 6.4 | 0.00 | 0.00 | 0.00 | 74 | 1008.4 |
| 20260505051550 | 13 | 183 | 3.2 | 6.4 | 0.00 | 0.00 | 0.00 | 74 | 1008.5 |
| 20260505051527 | 13 | 183 | 3.2 | 6.4 | 0.00 | 0.00 | 0.00 | 74 | 1008.4 |
| 20260505051523 | 13 | 183 | 3.2 | 6.4 | 0.00 | 0.00 | 0.00 | 74 | 1008.5 |
| 20260505051514 | 13 | 183 | 3.2 | 6.4 | 0.00 | 0.00 | 0.00 | 74 | 1008.4 |
| 20260505051138 | 13 | 184 | 3.2 | 6.4 | 0.00 | 0.00 | 0.00 | 74 | 1008.4 |
| 20260505051038 | 14 | 183 | 3.2 | 6.4 | 0.00 | 0.00 | 0.00 | 74 | 1008.4 |
| 20260505050933 | 14 | 184 | 3.2 | 6.4 | 0.00 | 0.00 | 0.00 | 74 | 1008.4 |
| 20260505050849 | 14 | 183 | 3.2 | 6.4 | 0.00 | 0.00 | 0.00 | 74 | 1008.4 |
| 20260505050843 | 14 | 183 | 3.2 | 6.4 | 0.00 | 0.00 | 0.00 | 74 | 1008.4 |
| 20260505050627 | 14 | 183 | 3.2 | 6.4 | 0.00 | 0.00 | 0.00 | 74 | 1008.4 |
| 20260505050541 | 14 | 183 | 3.2 | 6.4 | 0.00 | 0.00 | 0.00 | 74 | 1008.4 |
| 20260505050534 | 14 | 183 | 3.2 | 6.4 | 0.00 | 0.00 | 0.00 | 74 | 1008.4 |
| 20260505050314 | 14 | 183 | 3.2 | 6.4 | 0.00 | 0.00 | 0.00 | 74 | 1008.3 |
| 20260505050253 | 14 | 183 | 3.2 | 6.4 | 0.00 | 0.00 | 0.00 | 74 | 1008.3 |
| 20260505050249 | 14 | 183 | 3.2 | 6.4 | 0.00 | 0.00 | 0.00 | 74 | 1008.3 |
| 20260505050240 | 14 | 183 | 3.2 | 6.4 | 0.00 | 0.00 | 0.00 | 74 | 1008.4 |
| 20260505041702 | 14 | 182 | 0.0 | 8.0 | 0.00 | 0.00 | 0.00 | 71 | 1008.1 |
| 20260505041603 | 14 | 182 | 0.0 | 8.0 | 0.00 | 0.00 | 0.00 | 71 | 1008.1 |
| 20260505041456 | 14 | 182 | 0.0 | 8.0 | 0.00 | 0.00 | 0.00 | 71 | 1008.1 |
| 20260505041357 | 14 | 182 | 1.6 | 11.3 | 0.00 | 0.00 | 0.00 | 71 | 1008.1 |
| 20260505041250 | 14 | 182 | 1.6 | 11.3 | 0.00 | 0.00 | 0.00 | 71 | 1008.1 |
| 20260505041151 | 14 | 182 | 1.6 | 11.3 | 0.00 | 0.00 | 0.00 | 71 | 1008.0 |
| 20260505041107 | 14 | 182 | 1.6 | 11.3 | 0.00 | 0.00 | 0.00 | 71 | 1008.0 |
| 20260505041100 | 14 | 182 | 1.6 | 11.3 | 0.00 | 0.00 | 0.00 | 71 | 1008.0 |
| 20260505040837 | 14 | 182 | 1.6 | 11.3 | 0.00 | 0.00 | 0.00 | 72 | 1008.0 |
| 20260505040754 | 14 | 182 | 3.2 | 11.3 | 0.00 | 0.00 | 0.00 | 72 | 1008.0 |
| 20260505040748 | 14 | 182 | 3.2 | 11.3 | 0.00 | 0.00 | 0.00 | 71 | 1008.0 |
| 20260505040533 | 14 | 182 | 3.2 | 11.3 | 0.00 | 0.00 | 0.00 | 72 | 1008.0 |
| 20260505040426 | 13 | 179 | 3.2 | 11.3 | 0.00 | 0.00 | 0.00 | 72 | 1008.0 |
| 20260505040326 | 13 | 179 | 3.2 | 11.3 | 0.00 | 0.00 | 0.00 | 72 | 1008.0 |
| 20260505040219 | 13 | 179 | 4.8 | 11.3 | 0.00 | 0.00 | 0.00 | 72 | 1008.0 |
| 20260505040120 | 13 | 179 | 4.8 | 11.3 | 0.00 | 0.00 | 0.00 | 72 | 1007.9 |
| 20260505040013 | 13 | 180 | 4.8 | 11.3 | 0.00 | 0.00 | 0.00 | 72 | 1008.0 |
| 20260505035914 | 13 | 179 | 4.8 | 11.3 | 0.00 | 0.00 | 0.00 | 72 | 1008.0 |
| 20260505035807 | 13 | 180 | 4.8 | 11.3 | 0.00 | 0.00 | 0.00 | 72 | 1008.0 |
| 20260505035708 | 13 | 179 | 4.8 | 11.3 | 0.00 | 0.00 | 0.00 | 72 | 1008.0 |
| 20260505035602 | 13 | 178 | 4.8 | 11.3 | 0.00 | 0.00 | 0.00 | 72 | 1008.0 |
| 20260505035518 | 13 | 173 | 4.8 | 9.7 | 0.00 | 0.00 | 0.00 | 71 | 1008.0 |
| 20260505035512 | 13 | 167 | 4.8 | 11.3 | 0.00 | 0.00 | 0.00 | 71 | 1008.0 |
| 20260505035256 | 13 | 174 | 4.8 | 9.7 | 0.00 | 0.00 | 0.00 | 71 | 1008.0 |
| 20260505035150 | 13 | 167 | 4.8 | 9.7 | 0.00 | 0.00 | 0.00 | 71 | 1008.0 |
| 20260505035050 | 13 | 172 | 4.8 | 9.7 | 0.00 | 0.00 | 0.00 | 71 | 1008.0 |
| 20260505034943 | 13 | 187 | 4.8 | 9.7 | 0.00 | 0.00 | 0.00 | 70 | 1008.0 |
| 20260505034845 | 13 | 188 | 4.8 | 9.7 | 0.00 | 0.00 | 0.00 | 70 | 1007.9 |
| 20260505034737 | 13 | 163 | 4.8 | 9.7 | 0.00 | 0.00 | 0.00 | 69 | 1008.0 |
| 20260505034638 | 13 | 172 | 3.2 | 8.0 | 0.00 | 0.00 | 0.00 | 69 | 1007.9 |
| 20260505034532 | 13 | 173 | 3.2 | 8.0 | 0.00 | 0.00 | 0.00 | 69 | 1007.9 |
| 20260505034432 | 14 | 173 | 3.2 | 8.0 | 0.00 | 0.00 | 0.00 | 69 | 1007.9 |
| 20260505034325 | 14 | 173 | 3.2 | 8.0 | 0.00 | 0.00 | 0.00 | 69 | 1007.9 |
| 20260505034226 | 14 | 176 | 3.2 | 8.0 | 0.00 | 0.00 | 0.00 | 68 | 1007.9 |
| 20260505034119 | 14 | 176 | 3.2 | 6.4 | 0.00 | 0.00 | 0.00 | 68 | 1008.0 |
| 20260505034037 | 14 | 178 | 1.6 | 6.4 | 0.00 | 0.00 | 0.00 | 68 | 1007.9 |
| 20260505034030 | 14 | 177 | 3.2 | 6.4 | 0.00 | 0.00 | 0.00 | 68 | 1007.9 |
| 20260505033814 | 14 | 178 | 1.6 | 6.4 | 0.00 | 0.00 | 0.00 | 67 | 1007.9 |
| 20260505033709 | 14 | 179 | 1.6 | 4.8 | 0.00 | 0.00 | 0.00 | 66 | 1008.0 |
| 20260505033621 | 15 | 180 | 1.6 | 4.8 | 0.00 | 0.00 | 0.00 | 66 | 1008.0 |
| 20260505033615 | 15 | 179 | 1.6 | 4.8 | 0.00 | 0.00 | 0.00 | 66 | 1008.0 |
| 20260505033402 | 15 | 180 | 1.6 | 4.8 | 0.00 | 0.00 | 0.00 | 66 | 1008.0 |
| 20260505033256 | 15 | 180 | 1.6 | 3.2 | 0.00 | 0.00 | 0.00 | 65 | 1008.0 |
| 20260505033156 | 15 | 180 | 0.0 | 3.2 | 0.00 | 0.00 | 0.00 | 65 | 1008.0 |
| 20260505033049 | 15 | 180 | 0.0 | 3.2 | 0.00 | 0.00 | 0.00 | 65 | 1008.0 |
| 20260505032951 | 15 | 180 | 1.6 | 6.4 | 0.00 | 0.00 | 0.00 | 64 | 1008.0 |
| 20260505032843 | 15 | 180 | 1.6 | 6.4 | 0.00 | 0.00 | 0.00 | 65 | 1008.0 |
| 20260505032759 | 15 | 180 | 1.6 | 6.4 | 0.00 | 0.00 | 0.00 | 64 | 1008.1 |
| 20260505032753 | 15 | 180 | 1.6 | 6.4 | 0.00 | 0.00 | 0.00 | 64 | 1008.0 |
| 20260505032538 | 15 | 180 | 1.6 | 6.4 | 0.00 | 0.00 | 0.00 | 64 | 1008.0 |
| 20260505032432 | 15 | 180 | 1.6 | 6.4 | 0.00 | 0.00 | 0.00 | 63 | 1008.0 |
| 20260505032331 | 15 | 180 | 1.6 | 6.4 | 0.00 | 0.00 | 0.00 | 63 | 1008.0 |
| 20260505032225 | 16 | 180 | 1.6 | 6.4 | 0.00 | 0.00 | 0.00 | 62 | 1008.0 |
| 20260505032126 | 16 | 180 | 1.6 | 6.4 | 0.00 | 0.00 | 0.00 | 62 | 1008.0 |
| 20260505032041 | 16 | 180 | 1.6 | 6.4 | 0.00 | 0.00 | 0.00 | 62 | 1008.0 |
| 20260505032034 | 16 | 180 | 1.6 | 6.4 | 0.00 | 0.00 | 0.00 | 62 | 1008.1 |
| 20260505031813 | 16 | 180 | 1.6 | 6.4 | 0.00 | 0.00 | 0.00 | 62 | 1008.1 |
| 20260505031732 | 16 | 180 | 3.2 | 6.4 | 0.00 | 0.00 | 0.00 | 61 | 1008.1 |
| 20260505031724 | 16 | 180 | 3.2 | 6.4 | 0.00 | 0.00 | 0.00 | 62 | 1008.1 |
| 20260505031508 | 16 | 180 | 3.2 | 6.4 | 0.00 | 0.00 | 0.00 | 60 | 1008.1 |
| 20260505031403 | 16 | 180 | 3.2 | 6.4 | 0.00 | 0.00 | 0.00 | 60 | 1008.0 |
| 20260505031302 | 16 | 180 | 3.2 | 6.4 | 0.00 | 0.00 | 0.00 | 60 | 1008.1 |
| 20260505031234 | 16 | 180 | 3.2 | 6.4 | 0.00 | 0.00 | 0.00 | 60 | 1008.0 |
| 20260505031228 | 16 | 180 | 3.2 | 6.4 | 0.00 | 0.00 | 0.00 | 60 | 1008.0 |
| 20260505031220 | 16 | 180 | 3.2 | 6.4 | 0.00 | 0.00 | 0.00 | 59 | 1008.0 |
| 20260505030850 | 16 | 180 | 3.2 | 6.4 | 0.00 | 0.00 | 0.00 | 59 | 1008.0 |
| 20260505030745 | 16 | 179 | 3.2 | 6.4 | 0.00 | 0.00 | 0.00 | 59 | 1008.1 |
| 20260505030644 | 16 | 173 | 3.2 | 6.4 | 0.00 | 0.00 | 0.00 | 59 | 1008.0 |
| 20260505030537 | 16 | 173 | 3.2 | 6.4 | 0.00 | 0.00 | 0.00 | 59 | 1008.1 |
| 20260505030438 | 16 | 173 | 3.2 | 6.4 | 0.00 | 0.00 | 0.00 | 59 | 1008.1 |
| 20260505030332 | 16 | 173 | 3.2 | 6.4 | 0.00 | 0.00 | 0.00 | 59 | 1008.1 |
| 20260505030232 | 16 | 173 | 1.6 | 6.4 | 0.00 | 0.00 | 0.00 | 59 | 1008.1 |
| 20260505030126 | 16 | 170 | 1.6 | 4.8 | 0.00 | 0.00 | 0.00 | 59 | 1008.1 |
| 20260505030026 | 16 | 170 | 1.6 | 9.7 | 0.00 | 0.00 | 0.00 | 59 | 1008.1 |
| 20260505025919 | 16 | 170 | 1.6 | 9.7 | 0.00 | 0.00 | 0.00 | 59 | 1008.1 |
| 20260505025819 | 16 | 170 | 1.6 | 9.7 | 0.00 | 0.00 | 0.00 | 59 | 1008.1 |
| 20260505025713 | 16 | 170 | 1.6 | 9.7 | 0.00 | 0.00 | 0.00 | 59 | 1008.1 |
| 20260505025614 | 16 | 170 | 1.6 | 9.7 | 0.00 | 0.00 | 0.00 | 59 | 1008.0 |
| 20260505025507 | 16 | 170 | 3.2 | 9.7 | 0.00 | 0.00 | 0.00 | 59 | 1008.1 |
| 20260505025408 | 16 | 170 | 3.2 | 9.7 | 0.00 | 0.00 | 0.00 | 59 | 1008.0 |
| 20260505025304 | 16 | 170 | 3.2 | 9.7 | 0.00 | 0.00 | 0.00 | 59 | 1008.0 |
| 20260505025202 | 16 | 170 | 3.2 | 9.7 | 0.00 | 0.00 | 0.00 | 59 | 1008.0 |
| 20260505025055 | 16 | 170 | 3.2 | 9.7 | 0.00 | 0.00 | 0.00 | 59 | 1008.0 |
| 20260505024956 | 16 | 169 | 4.8 | 9.7 | 0.00 | 0.00 | 0.00 | 59 | 1008.0 |
| 20260505024850 | 16 | 169 | 4.8 | 9.7 | 0.00 | 0.00 | 0.00 | 59 | 1008.0 |
| 20260505024750 | 16 | 169 | 3.2 | 9.7 | 0.00 | 0.00 | 0.00 | 59 | 1008.0 |
| 20260505024644 | 16 | 169 | 3.2 | 9.7 | 0.00 | 0.00 | 0.00 | 60 | 1008.0 |
| 20260505024544 | 16 | 169 | 3.2 | 9.7 | 0.00 | 0.00 | 0.00 | 60 | 1008.0 |
| 20260505024501 | 16 | 162 | 3.2 | 9.7 | 0.00 | 0.00 | 0.00 | 60 | 1007.9 |
| 20260505024454 | 16 | 162 | 3.2 | 9.7 | 0.00 | 0.00 | 0.00 | 60 | 1008.0 |
| 20260505024232 | 16 | 161 | 3.2 | 9.7 | 0.00 | 0.00 | 0.00 | 59 | 1007.9 |
| 20260505024132 | 16 | 148 | 3.2 | 9.7 | 0.00 | 0.00 | 0.00 | 60 | 1007.9 |
| 20260505024025 | 16 | 144 | 3.2 | 9.7 | 0.00 | 0.00 | 0.00 | 60 | 1007.8 |
| 20260505023943 | 16 | 144 | 3.2 | 9.7 | 0.00 | 0.00 | 0.00 | 59 | 1007.8 |
| 20260505023936 | 16 | 144 | 3.2 | 9.7 | 0.00 | 0.00 | 0.00 | 61 | 1007.8 |
| 20260505023720 | 16 | 144 | 3.2 | 9.7 | 0.00 | 0.00 | 0.00 | 59 | 1007.7 |
| 20260505023613 | 16 | 144 | 1.6 | 9.7 | 0.00 | 0.00 | 0.00 | 59 | 1007.7 |
| 20260505023514 | 16 | 144 | 1.6 | 9.7 | 0.00 | 0.00 | 0.00 | 58 | 1007.8 |
| 20260505023407 | 16 | 144 | 1.6 | 11.3 | 0.00 | 0.00 | 0.00 | 58 | 1007.8 |
| 20260505023308 | 16 | 144 | 1.6 | 11.3 | 0.00 | 0.00 | 0.00 | 58 | 1007.8 |
| 20260505023203 | 16 | 144 | 1.6 | 11.3 | 0.00 | 0.00 | 0.00 | 58 | 1007.9 |
| 20260505023102 | 16 | 134 | 0.0 | 11.3 | 0.00 | 0.00 | 0.00 | 58 | 1007.8 |
| 20260505022956 | 17 | 134 | 0.0 | 11.3 | 0.00 | 0.00 | 0.00 | 58 | 1007.8 |
| 20260505022911 | 17 | 134 | 1.6 | 11.3 | 0.00 | 0.00 | 0.00 | 58 | 1007.8 |
| 20260505022904 | 17 | 134 | 0.0 | 11.3 | 0.00 | 0.00 | 0.00 | 58 | 1007.8 |
| 20260505022650 | 17 | 134 | 1.6 | 11.3 | 0.00 | 0.00 | 0.00 | 58 | 1007.8 |
| 20260505022608 | 17 | 134 | 1.6 | 11.3 | 0.00 | 0.00 | 0.00 | 57 | 1007.8 |
| 20260505022559 | 17 | 134 | 1.6 | 11.3 | 0.00 | 0.00 | 0.00 | 57 | 1007.9 |
| 20260505022337 | 17 | 134 | 1.6 | 11.3 | 0.00 | 0.00 | 0.00 | 57 | 1007.8 |
| 20260505022238 | 17 | 134 | 3.2 | 11.3 | 0.00 | 0.00 | 0.00 | 57 | 1007.8 |
| 20260505022131 | 17 | 134 | 3.2 | 11.3 | 0.00 | 0.00 | 0.00 | 57 | 1007.8 |
| 20260505022032 | 17 | 134 | 3.2 | 11.3 | 0.00 | 0.00 | 0.00 | 57 | 1007.8 |
| 20260505021925 | 17 | 134 | 3.2 | 11.3 | 0.00 | 0.00 | 0.00 | 57 | 1007.7 |
| 20260505021904 | 17 | 134 | 3.2 | 11.3 | 0.00 | 0.00 | 0.00 | 57 | 1007.7 |
| 20260505021900 | 17 | 134 | 3.2 | 11.3 | 0.00 | 0.00 | 0.00 | 57 | 1007.7 |
| 20260505021850 | 17 | 134 | 3.2 | 11.3 | 0.00 | 0.00 | 0.00 | 57 | 1007.8 |
| 20260505021515 | 17 | 134 | 3.2 | 11.3 | 0.00 | 0.00 | 0.00 | 57 | 1007.7 |
| 20260505021414 | 17 | 162 | 3.2 | 11.3 | 0.00 | 0.00 | 0.00 | 57 | 1007.7 |
| 20260505021307 | 17 | 163 | 3.2 | 11.3 | 0.00 | 0.00 | 0.00 | 57 | 1007.7 |
| 20260505021208 | 17 | 163 | 4.8 | 11.3 | 0.00 | 0.00 | 0.00 | 57 | 1007.7 |
| 20260505021101 | 17 | 163 | 3.2 | 11.3 | 0.00 | 0.00 | 0.00 | 56 | 1007.7 |
| 20260505021003 | 17 | 138 | 3.2 | 11.3 | 0.00 | 0.00 | 0.00 | 56 | 1007.7 |
| 20260505020856 | 17 | 138 | 4.8 | 11.3 | 0.00 | 0.00 | 0.00 | 56 | 1007.7 |
| 20260505020756 | 17 | 144 | 4.8 | 11.3 | 0.00 | 0.00 | 0.00 | 56 | 1007.8 |
| 20260505020650 | 17 | 138 | 4.8 | 11.3 | 0.00 | 0.00 | 0.00 | 56 | 1007.7 |
| 20260505020550 | 17 | 139 | 4.8 | 11.3 | 0.00 | 0.00 | 0.00 | 56 | 1007.7 |
| 20260505020445 | 17 | 139 | 4.8 | 11.3 | 0.00 | 0.00 | 0.00 | 56 | 1007.8 |
| 20260505020344 | 17 | 139 | 4.8 | 11.3 | 0.00 | 0.00 | 0.00 | 56 | 1007.8 |
| 20260505020237 | 17 | 138 | 4.8 | 11.3 | 0.00 | 0.00 | 0.00 | 56 | 1007.8 |
| 20260505020138 | 17 | 120 | 4.8 | 11.3 | 0.00 | 0.00 | 0.00 | 56 | 1007.8 |
| 20260505020033 | 17 | 119 | 4.8 | 11.3 | 0.00 | 0.00 | 0.00 | 56 | 1007.8 |
| 20260505015932 | 17 | 138 | 4.8 | 14.5 | 0.00 | 0.00 | 0.00 | 56 | 1007.8 |
| 20260505015825 | 17 | 138 | 3.2 | 14.5 | 0.00 | 0.00 | 0.00 | 55 | 1007.8 |
| 20260505015727 | 17 | 139 | 3.2 | 14.5 | 0.00 | 0.00 | 0.00 | 55 | 1007.8 |
| 20260505015620 | 17 | 139 | 3.2 | 14.5 | 0.00 | 0.00 | 0.00 | 55 | 1007.8 |
| 20260505015520 | 17 | 139 | 4.8 | 14.5 | 0.00 | 0.00 | 0.00 | 55 | 1007.8 |
| 20260505015414 | 17 | 129 | 4.8 | 14.5 | 0.00 | 0.00 | 0.00 | 55 | 1007.8 |
| 20260505015329 | 17 | 129 | 3.2 | 14.5 | 0.00 | 0.00 | 0.00 | 55 | 1007.9 |
| 20260505015323 | 17 | 129 | 3.2 | 14.5 | 0.00 | 0.00 | 0.00 | 55 | 1007.9 |
| 20260505015108 | 17 | 129 | 3.2 | 14.5 | 0.00 | 0.00 | 0.00 | 55 | 1007.8 |
| 20260505015002 | 17 | 129 | 4.8 | 14.5 | 0.00 | 0.00 | 0.00 | 55 | 1007.8 |
| 20260505014902 | 17 | 128 | 4.8 | 14.5 | 0.00 | 0.00 | 0.00 | 55 | 1007.8 |
| 20260505014818 | 17 | 128 | 4.8 | 14.5 | 0.00 | 0.00 | 0.00 | 55 | 1007.8 |
| 20260505014811 | 17 | 128 | 4.8 | 14.5 | 0.00 | 0.00 | 0.00 | 55 | 1007.8 |
| 20260505014550 | 17 | 128 | 4.8 | 14.5 | 0.00 | 0.00 | 0.00 | 55 | 1007.8 |
| 20260505014450 | 17 | 119 | 4.8 | 14.5 | 0.00 | 0.00 | 0.00 | 55 | 1007.8 |
| 20260505014344 | 18 | 148 | 4.8 | 14.5 | 0.00 | 0.00 | 0.00 | 55 | 1007.8 |
| 20260505014301 | 18 | 148 | 6.4 | 14.5 | 0.00 | 0.00 | 0.00 | 54 | 1007.7 |
| 20260505014254 | 18 | 148 | 6.4 | 14.5 | 0.00 | 0.00 | 0.00 | 54 | 1007.7 |
| 20260505014038 | 18 | 164 | 4.8 | 14.5 | 0.00 | 0.00 | 0.00 | 54 | 1007.7 |
| 20260505013955 | 18 | 140 | 6.4 | 11.3 | 0.00 | 0.00 | 0.00 | 54 | 1007.7 |
| 20260505013946 | 18 | 131 | 6.4 | 11.3 | 0.00 | 0.00 | 0.00 | 54 | 1007.7 |
| 20260505013725 | 18 | 140 | 6.4 | 11.3 | 0.00 | 0.00 | 0.00 | 54 | 1007.7 |
| 20260505013627 | 18 | 139 | 6.4 | 11.3 | 0.00 | 0.00 | 0.00 | 54 | 1007.7 |
| 20260505013520 | 18 | 132 | 6.4 | 11.3 | 0.00 | 0.00 | 0.00 | 53 | 1007.6 |
| 20260505013420 | 18 | 127 | 6.4 | 11.3 | 0.00 | 0.00 | 0.00 | 53 | 1007.7 |
| 20260505013313 | 18 | 142 | 6.4 | 11.3 | 0.00 | 0.00 | 0.00 | 53 | 1007.7 |
| 20260505013214 | 18 | 125 | 6.4 | 12.9 | 0.00 | 0.00 | 0.00 | 53 | 1007.7 |
| 20260505013108 | 18 | 123 | 6.4 | 12.9 | 0.00 | 0.00 | 0.00 | 53 | 1007.7 |
| 20260505013008 | 18 | 129 | 6.4 | 12.9 | 0.00 | 0.00 | 0.00 | 53 | 1007.7 |
| 20260505012902 | 18 | 130 | 4.8 | 12.9 | 0.00 | 0.00 | 0.00 | 53 | 1007.8 |
| 20260505012819 | 18 | 132 | 4.8 | 12.9 | 0.00 | 0.00 | 0.00 | 53 | 1007.8 |
| 20260505012811 | 18 | 139 | 4.8 | 12.9 | 0.00 | 0.00 | 0.00 | 53 | 1007.8 |
| 20260505012556 | 18 | 132 | 4.8 | 12.9 | 0.00 | 0.00 | 0.00 | 53 | 1007.8 |
| 20260505012449 | 18 | 132 | 4.8 | 12.9 | 0.00 | 0.00 | 0.00 | 53 | 1007.8 |
| 20260505012350 | 18 | 132 | 4.8 | 16.1 | 0.00 | 0.00 | 0.00 | 53 | 1007.8 |
| 20260505012245 | 18 | 122 | 4.8 | 16.1 | 0.00 | 0.00 | 0.00 | 53 | 1007.8 |
| 20260505012144 | 18 | 137 | 3.2 | 16.1 | 0.00 | 0.00 | 0.00 | 52 | 1007.8 |
| 20260505012037 | 18 | 130 | 4.8 | 16.1 | 0.00 | 0.00 | 0.00 | 52 | 1007.8 |
| 20260505011938 | 18 | 138 | 4.8 | 16.1 | 0.00 | 0.00 | 0.00 | 52 | 1007.8 |
| 20260505011832 | 18 | 138 | 4.8 | 16.1 | 0.00 | 0.00 | 0.00 | 52 | 1007.8 |
| 20260505011732 | 18 | 138 | 6.4 | 16.1 | 0.00 | 0.00 | 0.00 | 52 | 1007.8 |
| 20260505011627 | 18 | 138 | 6.4 | 16.1 | 0.00 | 0.00 | 0.00 | 52 | 1007.8 |
| 20260505011526 | 18 | 137 | 6.4 | 16.1 | 0.00 | 0.00 | 0.00 | 51 | 1007.8 |
| 20260505011443 | 18 | 139 | 6.4 | 16.1 | 0.00 | 0.00 | 0.00 | 51 | 1007.8 |
| 20260505011436 | 18 | 135 | 6.4 | 16.1 | 0.00 | 0.00 | 0.00 | 51 | 1007.8 |
| 20260505011213 | 18 | 146 | 6.4 | 16.1 | 0.00 | 0.00 | 0.00 | 51 | 1007.7 |
| 20260505011114 | 19 | 132 | 4.8 | 16.1 | 0.00 | 0.00 | 0.00 | 51 | 1007.8 |
| 20260505011008 | 19 | 131 | 4.8 | 16.1 | 0.00 | 0.00 | 0.00 | 50 | 1007.7 |
| 20260505010907 | 19 | 118 | 4.8 | 16.1 | 0.00 | 0.00 | 0.00 | 50 | 1007.7 |
| 20260505010801 | 19 | 134 | 4.8 | 16.1 | 0.00 | 0.00 | 0.00 | 50 | 1007.7 |
| 20260505010702 | 19 | 127 | 4.8 | 16.1 | 0.00 | 0.00 | 0.00 | 50 | 1007.6 |
| 20260505010555 | 19 | 133 | 4.8 | 16.1 | 0.00 | 0.00 | 0.00 | 49 | 1007.7 |
| 20260505010456 | 19 | 129 | 4.8 | 16.1 | 0.00 | 0.00 | 0.00 | 49 | 1007.6 |
| 20260505010350 | 19 | 136 | 4.8 | 12.9 | 0.00 | 0.00 | 0.00 | 49 | 1007.6 |
| 20260505010250 | 19 | 136 | 4.8 | 12.9 | 0.00 | 0.00 | 0.00 | 49 | 1007.6 |
| 20260505010144 | 19 | 135 | 6.4 | 12.9 | 0.00 | 0.00 | 0.00 | 49 | 1007.6 |
| 20260505010044 | 19 | 134 | 6.4 | 12.9 | 0.00 | 0.00 | 0.00 | 49 | 1007.5 |
| 20260505005939 | 19 | 134 | 6.4 | 12.9 | 0.00 | 0.00 | 0.00 | 49 | 1007.5 |
| 20260505005838 | 19 | 159 | 6.4 | 12.9 | 0.00 | 0.00 | 0.00 | 49 | 1007.4 |
| 20260505005731 | 19 | 157 | 6.4 | 12.9 | 0.00 | 0.00 | 0.00 | 49 | 1007.4 |
| 20260505005633 | 19 | 153 | 6.4 | 12.9 | 0.00 | 0.00 | 0.00 | 49 | 1007.4 |
| 20260505005526 | 19 | 154 | 6.4 | 12.9 | 0.00 | 0.00 | 0.00 | 48 | 1007.4 |
| 20260505005426 | 20 | 143 | 6.4 | 12.9 | 0.00 | 0.00 | 0.00 | 48 | 1007.4 |
| 20260505005321 | 20 | 162 | 6.4 | 11.3 | 0.00 | 0.00 | 0.00 | 48 | 1007.4 |
| 20260505005258 | 20 | 150 | 6.4 | 11.3 | 0.00 | 0.00 | 0.00 | 48 | 1007.3 |
| 20260505005254 | 20 | 134 | 6.4 | 9.7 | 0.00 | 0.00 | 0.00 | 48 | 1007.3 |
| 20260505005244 | 20 | 162 | 6.4 | 11.3 | 0.00 | 0.00 | 0.00 | 48 | 1007.4 |
| 20260505004907 | 20 | 142 | 4.8 | 9.7 | 0.00 | 0.00 | 0.00 | 48 | 1007.3 |
| 20260505004808 | 20 | 140 | 4.8 | 9.7 | 0.00 | 0.00 | 0.00 | 48 | 1007.3 |
| 20260505004702 | 20 | 148 | 4.8 | 9.7 | 0.00 | 0.00 | 0.00 | 48 | 1007.3 |
| 20260505004602 | 20 | 148 | 4.8 | 14.5 | 0.00 | 0.00 | 0.00 | 48 | 1007.3 |
| 20260505004456 | 20 | 146 | 4.8 | 14.5 | 0.00 | 0.00 | 0.00 | 48 | 1007.3 |
| 20260505004356 | 20 | 150 | 4.8 | 14.5 | 0.00 | 0.00 | 0.00 | 47 | 1007.3 |
| 20260505004331 | 20 | 150 | 4.8 | 14.5 | 0.00 | 0.00 | 0.00 | 47 | 1007.3 |
| 20260505004325 | 20 | 148 | 6.4 | 14.5 | 0.00 | 0.00 | 0.00 | 47 | 1007.3 |
| 20260505004316 | 20 | 150 | 4.8 | 14.5 | 0.00 | 0.00 | 0.00 | 47 | 1007.3 |
| 20260505003943 | 20 | 148 | 6.4 | 14.5 | 0.00 | 0.00 | 0.00 | 47 | 1007.2 |
| 20260505003838 | 20 | 148 | 6.4 | 14.5 | 0.00 | 0.00 | 0.00 | 47 | 1007.2 |
| 20260505003738 | 20 | 148 | 6.4 | 14.5 | 0.00 | 0.00 | 0.00 | 47 | 1007.2 |
| 20260505003633 | 20 | 149 | 6.4 | 16.1 | 0.00 | 0.00 | 0.00 | 46 | 1007.2 |
| 20260505003532 | 20 | 157 | 6.4 | 16.1 | 0.00 | 0.00 | 0.00 | 46 | 1007.1 |
| 20260505003516 | 20 | 134 | 6.4 | 16.1 | 0.00 | 0.00 | 0.00 | 46 | 1007.1 |
| 20260505003506 | 20 | 159 | 6.4 | 16.1 | 0.00 | 0.00 | 0.00 | 46 | 1007.1 |
| 20260505003346 | 20 | 142 | 6.4 | 16.1 | 0.00 | 0.00 | 0.00 | 46 | 1007.1 |
| 20260505003129 | 20 | 163 | 6.4 | 16.1 | 0.00 | 0.00 | 0.00 | 46 | 1007.1 |
| 20260505003029 | 20 | 156 | 6.4 | 16.1 | 0.00 | 0.00 | 0.00 | 46 | 1007.2 |
| 20260505002929 | 20 | 147 | 8.0 | 16.1 | 0.00 | 0.00 | 0.00 | 46 | 1007.1 |
| 20260505002847 | 20 | 153 | 8.0 | 16.1 | 0.00 | 0.00 | 0.00 | 46 | 1007.2 |
| 20260505002839 | 20 | 155 | 8.0 | 16.1 | 0.00 | 0.00 | 0.00 | 46 | 1007.2 |
| 20260505002624 | 20 | 161 | 8.0 | 16.1 | 0.00 | 0.00 | 0.00 | 46 | 1007.2 |
| 20260505002517 | 20 | 140 | 8.0 | 16.1 | 0.00 | 0.00 | 0.00 | 46 | 1007.2 |
| 20260505002418 | 20 | 125 | 8.0 | 17.7 | 0.00 | 0.00 | 0.00 | 45 | 1007.1 |
| 20260505002312 | 20 | 134 | 8.0 | 17.7 | 0.00 | 0.00 | 0.00 | 45 | 1007.1 |
| 20260505002212 | 20 | 185 | 8.0 | 17.7 | 0.00 | 0.00 | 0.00 | 46 | 1007.2 |
| 20260505002126 | 20 | 157 | 8.0 | 17.7 | 0.00 | 0.00 | 0.00 | 45 | 1007.1 |
| 20260505002119 | 20 | 159 | 8.0 | 17.7 | 0.00 | 0.00 | 0.00 | 46 | 1007.1 |
| 20260505001903 | 20 | 170 | 8.0 | 17.7 | 0.00 | 0.00 | 0.00 | 45 | 1007.1 |
| 20260505001805 | 20 | 172 | 8.0 | 17.7 | 0.00 | 0.00 | 0.00 | 45 | 1007.1 |
| 20260505001720 | 20 | 154 | 8.0 | 17.7 | 0.00 | 0.00 | 0.00 | 45 | 1007.1 |
| 20260505001712 | 20 | 159 | 8.0 | 17.7 | 0.00 | 0.00 | 0.00 | 45 | 1007.1 |
| 20260505001451 | 20 | 164 | 8.0 | 17.7 | 0.00 | 0.00 | 0.00 | 45 | 1007.1 |
| 20260505001352 | 20 | 159 | 8.0 | 17.7 | 0.00 | 0.00 | 0.00 | 45 | 1007.0 |
| 20260505001305 | 20 | 145 | 8.0 | 17.7 | 0.00 | 0.00 | 0.00 | 45 | 1007.1 |
| 20260505001257 | 20 | 156 | 8.0 | 17.7 | 0.00 | 0.00 | 0.00 | 45 | 1007.0 |
| 20260505001037 | 20 | 159 | 8.0 | 17.7 | 0.00 | 0.00 | 0.00 | 45 | 1007.0 |
| 20260505000936 | 20 | 132 | 8.0 | 17.7 | 0.00 | 0.00 | 0.00 | 45 | 1006.9 |
| 20260505000831 | 21 | 155 | 8.0 | 19.3 | 0.00 | 0.00 | 0.00 | 46 | 1007.0 |
| 20260505000730 | 21 | 169 | 8.0 | 19.3 | 0.00 | 0.00 | 0.00 | 45 | 1007.0 |
| 20260505000624 | 21 | 148 | 8.0 | 19.3 | 0.00 | 0.00 | 0.00 | 45 | 1007.0 |
| 20260505000524 | 21 | 165 | 8.0 | 19.3 | 0.00 | 0.00 | 0.00 | 45 | 1007.0 |
| 20260505000420 | 21 | 151 | 8.0 | 19.3 | 0.00 | 0.00 | 0.00 | 45 | 1007.0 |
| 20260505000318 | 21 | 145 | 8.0 | 19.3 | 0.00 | 0.00 | 0.00 | 45 | 1007.0 |
| 20260505000212 | 21 | 144 | 8.0 | 19.3 | 0.00 | 0.00 | 0.00 | 45 | 1007.0 |
| 20260505000129 | 21 | 158 | 8.0 | 19.3 | 0.00 | 0.00 | 0.00 | 45 | 1007.0 |
| 20260505000122 | 21 | 153 | 8.0 | 19.3 | 0.00 | 0.00 | 0.00 | 45 | 1007.0 |
| 20260504235906 | 21 | 148 | 9.7 | 19.3 | 0.00 | 0.00 | 0.00 | 45 | 1007.0 |
| 20260504235800 | 21 | 144 | 9.7 | 19.3 | 0.00 | 0.00 | 0.00 | 45 | 1007.0 |
| 20260504235700 | 21 | 155 | 9.7 | 19.3 | 0.00 | 0.00 | 0.00 | 45 | 1007.0 |
| 20260504235553 | 21 | 150 | 9.7 | 20.9 | 0.00 | 0.00 | 0.00 | 45 | 1006.9 |
| 20260504235511 | 21 | 176 | 11.3 | 20.9 | 0.00 | 0.00 | 0.00 | 45 | 1006.9 |
| 20260504235503 | 21 | 164 | 9.7 | 20.9 | 0.00 | 0.00 | 0.00 | 45 | 1006.9 |
| 20260504235248 | 21 | 171 | 11.3 | 20.9 | 0.00 | 0.00 | 0.00 | 45 | 1006.9 |
| 20260504235142 | 21 | 169 | 11.3 | 20.9 | 0.00 | 0.00 | 0.00 | 44 | 1006.9 |
| 20260504235042 | 21 | 153 | 11.3 | 20.9 | 0.00 | 0.00 | 0.00 | 44 | 1006.9 |
| 20260504234936 | 21 | 155 | 9.7 | 20.9 | 0.00 | 0.00 | 0.00 | 45 | 1006.9 |
| 20260504234837 | 21 | 141 | 9.7 | 20.9 | 0.00 | 0.00 | 0.00 | 45 | 1006.9 |
| 20260504234730 | 21 | 169 | 9.7 | 20.9 | 0.00 | 0.00 | 0.00 | 45 | 1006.9 |
| 20260504234630 | 21 | 123 | 8.0 | 20.9 | 0.00 | 0.00 | 0.00 | 45 | 1006.9 |
| 20260504234547 | 21 | 159 | 8.0 | 19.3 | 0.00 | 0.00 | 0.00 | 45 | 1006.9 |
| 20260504234540 | 21 | 144 | 8.0 | 19.3 | 0.00 | 0.00 | 0.00 | 45 | 1006.9 |
| 20260504234318 | 21 | 189 | 8.0 | 19.3 | 0.00 | 0.00 | 0.00 | 44 | 1006.9 |
| 20260504234217 | 21 | 155 | 8.0 | 19.3 | 0.00 | 0.00 | 0.00 | 45 | 1006.9 |
| 20260504234112 | 21 | 159 | 8.0 | 19.3 | 0.00 | 0.00 | 0.00 | 45 | 1006.9 |
| 20260504234028 | 21 | 171 | 8.0 | 19.3 | 0.00 | 0.00 | 0.00 | 44 | 1006.8 |
| 20260504234022 | 21 | 159 | 8.0 | 19.3 | 0.00 | 0.00 | 0.00 | 45 | 1006.8 |
| 20260504233806 | 21 | 176 | 8.0 | 19.3 | 0.00 | 0.00 | 0.00 | 44 | 1006.8 |
| 20260504233700 | 21 | 181 | 8.0 | 19.3 | 0.00 | 0.00 | 0.00 | 45 | 1006.8 |
| 20260504233600 | 21 | 166 | 8.0 | 19.3 | 0.00 | 0.00 | 0.00 | 45 | 1006.8 |
| 20260504233454 | 21 | 162 | 8.0 | 19.3 | 0.00 | 0.00 | 0.00 | 44 | 1006.8 |
| 20260504233354 | 21 | 205 | 9.7 | 19.3 | 0.00 | 0.00 | 0.00 | 44 | 1006.9 |
| 20260504233248 | 21 | 146 | 9.7 | 19.3 | 0.00 | 0.00 | 0.00 | 44 | 1006.9 |
| 20260504233148 | 21 | 175 | 9.7 | 19.3 | 0.00 | 0.00 | 0.00 | 44 | 1006.8 |
| 20260504233123 | 21 | 176 | 9.7 | 35.4 | 0.00 | 0.00 | 0.00 | 44 | 1006.8 |
| 20260504233118 | 21 | 163 | 9.7 | 35.4 | 0.00 | 0.00 | 0.00 | 44 | 1006.8 |
| 20260504233108 | 21 | 175 | 9.7 | 35.4 | 0.00 | 0.00 | 0.00 | 45 | 1006.8 |
| 20260504232831 | 22 | 157 | 11.3 | 35.4 | 0.00 | 0.00 | 0.00 | 43 | 1006.8 |
| 20260504232826 | 21 | 167 | 9.7 | 35.4 | 0.00 | 0.00 | 0.00 | 44 | 1006.8 |
| 20260504232814 | 21 | 153 | 9.7 | 35.4 | 0.00 | 0.00 | 0.00 | 44 | 1006.8 |
| 20260504232540 | 22 | 119 | 11.3 | 35.4 | 0.00 | 0.00 | 0.00 | 44 | 1006.8 |
| 20260504232324 | 22 | 227 | 11.3 | 35.4 | 0.00 | 0.00 | 0.00 | 43 | 1006.8 |
| 20260504232217 | 22 | 167 | 12.9 | 35.4 | 0.00 | 0.00 | 0.00 | 43 | 1006.8 |
| 20260504232117 | 22 | 145 | 12.9 | 35.4 | 0.00 | 0.00 | 0.00 | 43 | 1006.8 |
| 20260504232012 | 22 | 135 | 12.9 | 35.4 | 0.00 | 0.00 | 0.00 | 43 | 1006.8 |
| 20260504231912 | 22 | 170 | 14.5 | 35.4 | 0.00 | 0.00 | 0.00 | 43 | 1006.9 |
| 20260504231806 | 22 | 167 | 14.5 | 35.4 | 0.00 | 0.00 | 0.00 | 43 | 1006.8 |
| 20260504231705 | 22 | 187 | 14.5 | 35.4 | 0.00 | 0.00 | 0.00 | 43 | 1006.9 |
| 20260504231600 | 22 | 123 | 16.1 | 35.4 | 0.00 | 0.00 | 0.00 | 42 | 1006.8 |
| 20260504231500 | 22 | 142 | 16.1 | 35.4 | 0.00 | 0.00 | 0.00 | 42 | 1006.9 |
| 20260504231354 | 22 | 163 | 16.1 | 35.4 | 0.00 | 0.00 | 0.00 | 42 | 1006.8 |
| 20260504231254 | 22 | 156 | 16.1 | 35.4 | 0.00 | 0.00 | 0.00 | 42 | 1006.8 |
| 20260504231148 | 22 | 178 | 16.1 | 35.4 | 0.00 | 0.00 | 0.00 | 43 | 1006.9 |
| 20260504231048 | 22 | 151 | 14.5 | 32.2 | 0.00 | 0.00 | 0.00 | 43 | 1006.9 |
| 20260504231008 | 22 | 167 | 12.9 | 32.2 | 0.00 | 0.00 | 0.00 | 42 | 1006.9 |
| 20260504231004 | 22 | 174 | 12.9 | 32.2 | 0.00 | 0.00 | 0.00 | 42 | 1006.8 |
| 20260504230959 | 22 | 175 | 11.3 | 32.2 | 0.00 | 0.00 | 0.00 | 42 | 1006.8 |
| 20260504230955 | 22 | 182 | 11.3 | 32.2 | 0.00 | 0.00 | 0.00 | 43 | 1006.9 |
| 20260504230949 | 22 | 120 | 14.5 | 32.2 | 0.00 | 0.00 | 0.00 | 42 | 1006.8 |
| 20260504230933 | 22 | 193 | 14.5 | 32.2 | 0.00 | 0.00 | 0.00 | 42 | 1006.9 |
| 20260504230324 | 22 | 179 | 11.3 | 24.1 | 0.00 | 0.00 | 0.00 | 43 | 1006.8 |
| 20260504230223 | 22 | 168 | 9.7 | 24.1 | 0.00 | 0.00 | 0.00 | 43 | 1006.8 |
| 20260504230118 | 22 | 148 | 9.7 | 24.1 | 0.00 | 0.00 | 0.00 | 42 | 1006.9 |
| 20260504230018 | 22 | 182 | 9.7 | 29.0 | 0.00 | 0.00 | 0.00 | 42 | 1006.9 |
| 20260504225912 | 22 | 201 | 9.7 | 29.0 | 0.00 | 0.00 | 0.00 | 43 | 1006.9 |
| 20260504225812 | 22 | 178 | 9.7 | 29.0 | 0.00 | 0.00 | 0.00 | 43 | 1006.9 |
| 20260504225706 | 22 | 165 | 9.7 | 29.0 | 0.00 | 0.00 | 0.00 | 43 | 1006.9 |
| 20260504225606 | 22 | 202 | 9.7 | 29.0 | 0.00 | 0.00 | 0.00 | 43 | 1006.9 |
| 20260504225502 | 22 | 202 | 9.7 | 29.0 | 0.00 | 0.00 | 0.00 | 43 | 1006.9 |
| 20260504225456 | 22 | 149 | 9.7 | 29.0 | 0.00 | 0.00 | 0.00 | 42 | 1006.9 |
| 20260504225443 | 22 | 185 | 9.7 | 29.0 | 0.00 | 0.00 | 0.00 | 42 | 1006.9 |
| 20260504225323 | 22 | 166 | 9.7 | 29.0 | 0.00 | 0.00 | 0.00 | 43 | 1006.9 |
| 20260504225204 | 22 | 190 | 9.7 | 29.0 | 0.00 | 0.00 | 0.00 | 43 | 1006.8 |
| 20260504224948 | 22 | 163 | 9.7 | 29.0 | 0.00 | 0.00 | 0.00 | 42 | 1006.9 |
| 20260504224842 | 22 | 134 | 9.7 | 29.0 | 0.00 | 0.00 | 0.00 | 43 | 1006.9 |
| 20260504224742 | 22 | 159 | 12.9 | 29.0 | 0.00 | 0.00 | 0.00 | 42 | 1006.8 |
| 20260504224715 | 22 | 133 | 12.9 | 29.0 | 0.00 | 0.00 | 0.00 | 41 | 1006.9 |
| 20260504224705 | 22 | 127 | 12.9 | 29.0 | 0.00 | 0.00 | 0.00 | 42 | 1006.9 |
| 20260504224546 | 22 | 144 | 12.9 | 29.0 | 0.00 | 0.00 | 0.00 | 42 | 1006.9 |
| 20260504224330 | 22 | 182 | 12.9 | 29.0 | 0.00 | 0.00 | 0.00 | 41 | 1006.8 |
| 20260504224224 | 22 | 171 | 14.5 | 29.0 | 0.00 | 0.00 | 0.00 | 41 | 1006.9 |
| 20260504224123 | 22 | 152 | 14.5 | 29.0 | 0.00 | 0.00 | 0.00 | 41 | 1006.9 |
| 20260504224042 | 22 | 187 | 14.5 | 29.0 | 0.00 | 0.00 | 0.00 | 41 | 1006.9 |
| 20260504224034 | 22 | 166 | 14.5 | 29.0 | 0.00 | 0.00 | 0.00 | 41 | 1006.9 |
| 20260504223812 | 22 | 178 | 12.9 | 35.4 | 0.00 | 0.00 | 0.00 | 41 | 1006.9 |
| 20260504223712 | 22 | 163 | 14.5 | 35.4 | 0.00 | 0.00 | 0.00 | 42 | 1006.9 |
| 20260504223629 | 22 | 180 | 14.5 | 35.4 | 0.00 | 0.00 | 0.00 | 41 | 1007.0 |
| 20260504223621 | 22 | 159 | 14.5 | 35.4 | 0.00 | 0.00 | 0.00 | 41 | 1007.0 |
| 20260504223423 | 22 | 160 | 14.5 | 35.4 | 0.00 | 0.00 | 0.00 | 41 | 1006.9 |
| 20260504223415 | 22 | 184 | 14.5 | 35.4 | 0.00 | 0.00 | 0.00 | 41 | 1007.0 |
| 20260504223154 | 23 | 167 | 14.5 | 35.4 | 0.00 | 0.00 | 0.00 | 41 | 1007.0 |
| 20260504223054 | 23 | 164 | 14.5 | 35.4 | 0.00 | 0.00 | 0.00 | 40 | 1007.0 |
| 20260504222948 | 23 | 188 | 14.5 | 35.4 | 0.00 | 0.00 | 0.00 | 40 | 1007.0 |
| 20260504222847 | 23 | 179 | 16.1 | 35.4 | 0.00 | 0.00 | 0.00 | 40 | 1006.9 |
| 20260504222742 | 23 | 163 | 16.1 | 35.4 | 0.00 | 0.00 | 0.00 | 40 | 1006.9 |
| 20260504222642 | 23 | 153 | 14.5 | 35.4 | 0.00 | 0.00 | 0.00 | 41 | 1007.0 |
| 20260504222536 | 23 | 183 | 14.5 | 35.4 | 0.00 | 0.00 | 0.00 | 40 | 1006.9 |
| 20260504222436 | 23 | 136 | 14.5 | 35.4 | 0.00 | 0.00 | 0.00 | 40 | 1006.9 |
| 20260504222330 | 23 | 194 | 14.5 | 35.4 | 0.00 | 0.00 | 0.00 | 40 | 1006.9 |
| 20260504222230 | 23 | 151 | 12.9 | 35.4 | 0.00 | 0.00 | 0.00 | 40 | 1006.9 |
| 20260504222147 | 23 | 203 | 12.9 | 35.4 | 0.00 | 0.00 | 0.00 | 40 | 1006.9 |
| 20260504222139 | 23 | 166 | 12.9 | 35.4 | 0.00 | 0.00 | 0.00 | 39 | 1007.0 |
| 20260504221919 | 23 | 219 | 12.9 | 35.4 | 0.00 | 0.00 | 0.00 | 40 | 1006.9 |
| 20260504221834 | 23 | 168 | 11.3 | 35.4 | 0.00 | 0.00 | 0.00 | 40 | 1006.9 |
| 20260504221827 | 23 | 193 | 11.3 | 35.4 | 0.00 | 0.00 | 0.00 | 40 | 1006.9 |
| 20260504221612 | 23 | 173 | 11.3 | 35.4 | 0.00 | 0.00 | 0.00 | 40 | 1007.0 |
| 20260504221506 | 23 | 167 | 11.3 | 35.4 | 0.00 | 0.00 | 0.00 | 41 | 1007.0 |
| 20260504221423 | 23 | 209 | 12.9 | 35.4 | 0.00 | 0.00 | 0.00 | 40 | 1007.0 |
| 20260504221415 | 23 | 186 | 12.9 | 35.4 | 0.00 | 0.00 | 0.00 | 41 | 1007.0 |
| 20260504221200 | 23 | 161 | 14.5 | 35.4 | 0.00 | 0.00 | 0.00 | 40 | 1007.0 |
| 20260504221054 | 23 | 192 | 14.5 | 35.4 | 0.00 | 0.00 | 0.00 | 40 | 1007.1 |
| 20260504220954 | 23 | 192 | 14.5 | 35.4 | 0.00 | 0.00 | 0.00 | 40 | 1007.1 |
| 20260504220849 | 23 | 157 | 16.1 | 35.4 | 0.00 | 0.00 | 0.00 | 40 | 1007.1 |
| 20260504220748 | 23 | 179 | 16.1 | 35.4 | 0.00 | 0.00 | 0.00 | 40 | 1007.0 |
| 20260504220642 | 23 | 157 | 17.7 | 35.4 | 0.00 | 0.00 | 0.00 | 40 | 1007.1 |
| 20260504220559 | 23 | 211 | 17.7 | 37.0 | 0.00 | 0.00 | 0.00 | 40 | 1007.0 |
| 20260504220551 | 23 | 193 | 17.7 | 37.0 | 0.00 | 0.00 | 0.00 | 40 | 1007.1 |
| 20260504220336 | 23 | 171 | 17.7 | 37.0 | 0.00 | 0.00 | 0.00 | 40 | 1007.0 |
| 20260504220230 | 23 | 148 | 17.7 | 37.0 | 0.00 | 0.00 | 0.00 | 39 | 1007.1 |
| 20260504220130 | 23 | 180 | 16.1 | 37.0 | 0.00 | 0.00 | 0.00 | 39 | 1007.1 |
| 20260504220024 | 23 | 186 | 16.1 | 37.0 | 0.00 | 0.00 | 0.00 | 39 | 1007.0 |
| 20260504215924 | 23 | 167 | 14.5 | 37.0 | 0.00 | 0.00 | 0.00 | 39 | 1007.1 |
| 20260504215818 | 23 | 165 | 14.5 | 37.0 | 0.00 | 0.00 | 0.00 | 40 | 1007.0 |
| 20260504215721 | 23 | 163 | 12.9 | 37.0 | 0.00 | 0.00 | 0.00 | 40 | 1006.9 |
| 20260504215612 | 23 | 180 | 11.3 | 37.0 | 0.00 | 0.00 | 0.00 | 39 | 1007.0 |
| 20260504215512 | 23 | 171 | 11.3 | 29.0 | 0.00 | 0.00 | 0.00 | 39 | 1006.9 |
| 20260504215406 | 23 | 157 | 11.3 | 29.0 | 0.00 | 0.00 | 0.00 | 39 | 1007.0 |
| 20260504215306 | 23 | 170 | 9.7 | 25.7 | 0.00 | 0.00 | 0.00 | 40 | 1007.0 |
| 20260504215223 | 23 | 187 | 11.3 | 35.4 | 0.00 | 0.00 | 0.00 | 40 | 1007.0 |
| 20260504215214 | 23 | 198 | 9.7 | 19.3 | 0.00 | 0.00 | 0.00 | 40 | 1007.0 |
| 20260504214954 | 23 | 161 | 11.3 | 35.4 | 0.00 | 0.00 | 0.00 | 40 | 1007.0 |
| 20260504214853 | 23 | 132 | 11.3 | 35.4 | 0.00 | 0.00 | 0.00 | 40 | 1006.9 |
| 20260504214748 | 23 | 140 | 12.9 | 35.4 | 0.00 | 0.00 | 0.00 | 39 | 1007.0 |
| 20260504214648 | 23 | 167 | 12.9 | 35.4 | 0.00 | 0.00 | 0.00 | 39 | 1007.0 |
| 20260504214542 | 23 | 137 | 12.9 | 35.4 | 0.00 | 0.00 | 0.00 | 40 | 1007.0 |
| 20260504214442 | 23 | 156 | 12.9 | 35.4 | 0.00 | 0.00 | 0.00 | 40 | 1007.0 |
| 20260504214336 | 23 | 173 | 14.5 | 35.4 | 0.00 | 0.00 | 0.00 | 40 | 1007.0 |
| 20260504214235 | 23 | 175 | 14.5 | 35.4 | 0.00 | 0.00 | 0.00 | 39 | 1007.0 |
| 20260504214130 | 23 | 180 | 14.5 | 35.4 | 0.00 | 0.00 | 0.00 | 39 | 1007.0 |
| 20260504214110 | 23 | 153 | 16.1 | 35.4 | 0.00 | 0.00 | 0.00 | 39 | 1007.0 |
| 20260504214105 | 23 | 169 | 16.1 | 35.4 | 0.00 | 0.00 | 0.00 | 39 | 1007.0 |
| 20260504214056 | 23 | 158 | 16.1 | 35.4 | 0.00 | 0.00 | 0.00 | 39 | 1007.0 |
| 20260504213718 | 23 | 190 | 16.1 | 35.4 | 0.00 | 0.00 | 0.00 | 39 | 1007.0 |
| 20260504213618 | 23 | 143 | 16.1 | 35.4 | 0.00 | 0.00 | 0.00 | 39 | 1007.0 |
| 20260504213512 | 23 | 171 | 16.1 | 35.4 | 0.00 | 0.00 | 0.00 | 39 | 1006.9 |
| 20260504213411 | 23 | 186 | 16.1 | 35.4 | 0.00 | 0.00 | 0.00 | 39 | 1007.0 |
| 20260504213306 | 23 | 163 | 14.5 | 35.4 | 0.00 | 0.00 | 0.00 | 39 | 1007.1 |
| 20260504213224 | 23 | 157 | 12.9 | 32.2 | 0.00 | 0.00 | 0.00 | 38 | 1007.0 |
| 20260504213217 | 23 | 151 | 14.5 | 35.4 | 0.00 | 0.00 | 0.00 | 39 | 1007.0 |
| 20260504213000 | 23 | 163 | 12.9 | 32.2 | 0.00 | 0.00 | 0.00 | 38 | 1007.0 |
| 20260504212855 | 23 | 145 | 12.9 | 32.2 | 0.00 | 0.00 | 0.00 | 38 | 1007.0 |
| 20260504212754 | 23 | 144 | 12.9 | 32.2 | 0.00 | 0.00 | 0.00 | 38 | 1007.0 |
| 20260504212728 | 23 | 134 | 11.3 | 32.2 | 0.00 | 0.00 | 0.00 | 39 | 1007.0 |
| 20260504212723 | 23 | 153 | 11.3 | 32.2 | 0.00 | 0.00 | 0.00 | 40 | 1007.0 |
| 20260504212713 | 23 | 167 | 11.3 | 32.2 | 0.00 | 0.00 | 0.00 | 40 | 1007.0 |
| 20260504212343 | 23 | 168 | 12.9 | 32.2 | 0.00 | 0.00 | 0.00 | 39 | 1007.0 |
| 20260504212236 | 23 | 172 | 12.9 | 32.2 | 0.00 | 0.00 | 0.00 | 39 | 1007.0 |
| 20260504212136 | 23 | 138 | 12.9 | 32.2 | 0.00 | 0.00 | 0.00 | 39 | 1007.0 |
| 20260504212029 | 23 | 130 | 12.9 | 32.2 | 0.00 | 0.00 | 0.00 | 40 | 1007.0 |
| 20260504211929 | 23 | 174 | 12.9 | 32.2 | 0.00 | 0.00 | 0.00 | 40 | 1007.0 |
| 20260504211830 | 23 | 206 | 12.9 | 32.2 | 0.00 | 0.00 | 0.00 | 40 | 1007.0 |
| 20260504211730 | 23 | 158 | 12.9 | 32.2 | 0.00 | 0.00 | 0.00 | 39 | 1007.0 |
| 20260504211630 | 23 | 184 | 12.9 | 32.2 | 0.00 | 0.00 | 0.00 | 40 | 1006.9 |
| 20260504211521 | 23 | 173 | 12.9 | 32.2 | 0.00 | 0.00 | 0.00 | 39 | 1007.0 |
| 20260504211420 | 23 | 175 | 11.3 | 32.2 | 0.00 | 0.00 | 0.00 | 40 | 1007.0 |
| 20260504211314 | 23 | 157 | 11.3 | 32.2 | 0.00 | 0.00 | 0.00 | 40 | 1007.0 |
| 20260504211214 | 23 | 159 | 12.9 | 32.2 | 0.00 | 0.00 | 0.00 | 40 | 1007.1 |
| 20260504211109 | 23 | 156 | 12.9 | 32.2 | 0.00 | 0.00 | 0.00 | 39 | 1007.0 |
| 20260504211008 | 23 | 182 | 12.9 | 32.2 | 0.00 | 0.00 | 0.00 | 40 | 1007.1 |
| 20260504210908 | 23 | 145 | 12.9 | 32.2 | 0.00 | 0.00 | 0.00 | 39 | 1007.0 |
| 20260504210808 | 23 | 157 | 14.5 | 32.2 | 0.00 | 0.00 | 0.00 | 40 | 1007.0 |
| 20260504210706 | 23 | 138 | 14.5 | 32.2 | 0.00 | 0.00 | 0.00 | 40 | 1007.0 |
| 20260504210606 | 23 | 158 | 16.1 | 32.2 | 0.00 | 0.00 | 0.00 | 40 | 1007.0 |
| 20260504210506 | 23 | 130 | 16.1 | 32.2 | 0.00 | 0.00 | 0.00 | 40 | 1007.0 |
| 20260504210439 | 23 | 180 | 14.5 | 32.2 | 0.00 | 0.00 | 0.00 | 40 | 1006.9 |
| 20260504210429 | 23 | 185 | 16.1 | 32.2 | 0.00 | 0.00 | 0.00 | 40 | 1006.9 |
| 20260504210309 | 23 | 128 | 16.1 | 32.2 | 0.00 | 0.00 | 0.00 | 40 | 1006.9 |
| 20260504210054 | 23 | 171 | 12.9 | 32.2 | 0.00 | 0.00 | 0.00 | 40 | 1006.9 |
| 20260504205948 | 23 | 142 | 12.9 | 32.2 | 0.00 | 0.00 | 0.00 | 41 | 1007.0 |
| 20260504205849 | 23 | 150 | 11.3 | 32.2 | 0.00 | 0.00 | 0.00 | 39 | 1007.0 |
| 20260504205743 | 23 | 157 | 11.3 | 32.2 | 0.00 | 0.00 | 0.00 | 40 | 1006.9 |
| 20260504205643 | 23 | 135 | 11.3 | 29.0 | 0.00 | 0.00 | 0.00 | 41 | 1006.9 |
| 20260504205532 | 23 | 171 | 9.7 | 22.5 | 0.00 | 0.00 | 0.00 | 40 | 1007.0 |
| 20260504205431 | 23 | 164 | 11.3 | 27.4 | 0.00 | 0.00 | 0.00 | 40 | 1007.0 |
| 20260504205416 | 23 | 173 | 11.3 | 27.4 | 0.00 | 0.00 | 0.00 | 39 | 1007.1 |
| 20260504205411 | 23 | 176 | 11.3 | 27.4 | 0.00 | 0.00 | 0.00 | 38 | 1007.0 |
| 20260504205401 | 23 | 186 | 11.3 | 27.4 | 0.00 | 0.00 | 0.00 | 40 | 1007.0 |
| 20260504205026 | 23 | 182 | 11.3 | 27.4 | 0.00 | 0.00 | 0.00 | 39 | 1007.0 |
| 20260504204926 | 23 | 157 | 12.9 | 27.4 | 0.00 | 0.00 | 0.00 | 39 | 1007.0 |
| 20260504204820 | 23 | 159 | 11.3 | 27.4 | 0.00 | 0.00 | 0.00 | 38 | 1007.1 |
| 20260504204737 | 23 | 167 | 11.3 | 27.4 | 0.00 | 0.00 | 0.00 | 38 | 1007.1 |
| 20260504204730 | 23 | 149 | 11.3 | 27.4 | 0.00 | 0.00 | 0.00 | 38 | 1007.1 |
| 20260504204514 | 23 | 154 | 11.3 | 27.4 | 0.00 | 0.00 | 0.00 | 38 | 1007.1 |
| 20260504204409 | 23 | 155 | 11.3 | 27.4 | 0.00 | 0.00 | 0.00 | 38 | 1007.2 |
| 20260504204326 | 23 | 176 | 12.9 | 27.4 | 0.00 | 0.00 | 0.00 | 40 | 1007.1 |
| 20260504204318 | 23 | 165 | 11.3 | 27.4 | 0.00 | 0.00 | 0.00 | 39 | 1007.2 |
| 20260504204102 | 23 | 144 | 12.9 | 27.4 | 0.00 | 0.00 | 0.00 | 39 | 1007.1 |
| 20260504203956 | 23 | 166 | 12.9 | 27.4 | 0.00 | 0.00 | 0.00 | 38 | 1007.2 |
| 20260504203855 | 23 | 188 | 12.9 | 27.4 | 0.00 | 0.00 | 0.00 | 40 | 1007.2 |
| 20260504203750 | 23 | 140 | 12.9 | 27.4 | 0.00 | 0.00 | 0.00 | 39 | 1007.2 |
| 20260504203650 | 23 | 178 | 14.5 | 27.4 | 0.00 | 0.00 | 0.00 | 38 | 1007.2 |
| 20260504203543 | 23 | 192 | 14.5 | 27.4 | 0.00 | 0.00 | 0.00 | 38 | 1007.2 |
| 20260504203444 | 23 | 204 | 14.5 | 25.7 | 0.00 | 0.00 | 0.00 | 40 | 1007.2 |
| 20260504203338 | 23 | 144 | 14.5 | 25.7 | 0.00 | 0.00 | 0.00 | 40 | 1007.2 |
| 20260504203238 | 23 | 176 | 14.5 | 25.7 | 0.00 | 0.00 | 0.00 | 40 | 1007.1 |
| 20260504203133 | 23 | 146 | 14.5 | 25.7 | 0.00 | 0.00 | 0.00 | 39 | 1007.2 |
| 20260504203031 | 23 | 229 | 16.1 | 27.4 | 0.00 | 0.00 | 0.00 | 39 | 1007.2 |
| 20260504202925 | 23 | 216 | 16.1 | 27.4 | 0.00 | 0.00 | 0.00 | 39 | 1007.2 |
| 20260504202826 | 23 | 184 | 16.1 | 27.4 | 0.00 | 0.00 | 0.00 | 38 | 1007.2 |
| 20260504202719 | 23 | 194 | 14.5 | 27.4 | 0.00 | 0.00 | 0.00 | 37 | 1007.2 |
| 20260504202701 | 23 | 140 | 14.5 | 27.4 | 0.00 | 0.00 | 0.00 | 39 | 1007.3 |
| 20260504202650 | 23 | 198 | 14.5 | 27.4 | 0.00 | 0.00 | 0.00 | 39 | 1007.2 |
| 20260504202529 | 23 | 161 | 14.5 | 27.4 | 0.00 | 0.00 | 0.00 | 39 | 1007.3 |
| 20260504202347 | 23 | 134 | 14.5 | 27.4 | 0.00 | 0.00 | 0.00 | 41 | 1007.2 |
| 20260504202342 | 23 | 142 | 12.9 | 27.4 | 0.00 | 0.00 | 0.00 | 38 | 1007.2 |
| 20260504202332 | 23 | 194 | 14.5 | 27.4 | 0.00 | 0.00 | 0.00 | 42 | 1007.3 |
| 20260504202002 | 23 | 132 | 12.9 | 25.7 | 0.00 | 0.00 | 0.00 | 38 | 1007.3 |
| 20260504201855 | 23 | 129 | 12.9 | 25.7 | 0.00 | 0.00 | 0.00 | 40 | 1007.3 |
| 20260504201755 | 23 | 120 | 12.9 | 25.7 | 0.00 | 0.00 | 0.00 | 41 | 1007.4 |
| 20260504201649 | 23 | 139 | 12.9 | 25.7 | 0.00 | 0.00 | 0.00 | 40 | 1007.4 |
| 20260504201550 | 23 | 136 | 12.9 | 25.7 | 0.00 | 0.00 | 0.00 | 39 | 1007.4 |
| 20260504201444 | 23 | 128 | 12.9 | 22.5 | 0.00 | 0.00 | 0.00 | 40 | 1007.4 |
| 20260504201344 | 23 | 178 | 12.9 | 33.8 | 0.00 | 0.00 | 0.00 | 39 | 1007.5 |
| 20260504201237 | 23 | 159 | 12.9 | 33.8 | 0.00 | 0.00 | 0.00 | 40 | 1007.5 |
| 20260504201137 | 23 | 173 | 12.9 | 33.8 | 0.00 | 0.00 | 0.00 | 40 | 1007.5 |
| 20260504201031 | 23 | 155 | 12.9 | 33.8 | 0.00 | 0.00 | 0.00 | 40 | 1007.6 |
| 20260504200932 | 23 | 187 | 12.9 | 33.8 | 0.00 | 0.00 | 0.00 | 40 | 1007.5 |
| 20260504200825 | 23 | 148 | 11.3 | 33.8 | 0.00 | 0.00 | 0.00 | 39 | 1007.5 |
| 20260504200726 | 23 | 131 | 11.3 | 33.8 | 0.00 | 0.00 | 0.00 | 41 | 1007.5 |
| 20260504200620 | 23 | 120 | 11.3 | 33.8 | 0.00 | 0.00 | 0.00 | 41 | 1007.6 |
| 20260504200520 | 23 | 173 | 11.3 | 33.8 | 0.00 | 0.00 | 0.00 | 39 | 1007.6 |
| 20260504200413 | 23 | 189 | 12.9 | 33.8 | 0.00 | 0.00 | 0.00 | 39 | 1007.6 |
| 20260504200329 | 23 | 195 | 12.9 | 33.8 | 0.00 | 0.00 | 0.00 | 41 | 1007.6 |
| 20260504200323 | 23 | 198 | 12.9 | 33.8 | 0.00 | 0.00 | 0.00 | 41 | 1007.7 |
| 20260504200109 | 23 | 221 | 12.9 | 33.8 | 0.00 | 0.00 | 0.00 | 40 | 1007.7 |
| 20260504200001 | 23 | 207 | 12.9 | 33.8 | 0.00 | 0.00 | 0.00 | 41 | 1007.7 |
| 20260504195902 | 23 | 179 | 12.9 | 33.8 | 0.00 | 0.00 | 0.00 | 41 | 1007.7 |
| 20260504195755 | 23 | 195 | 12.9 | 33.8 | 0.00 | 0.00 | 0.00 | 40 | 1007.7 |
| 20260504195656 | 23 | 182 | 12.9 | 33.8 | 0.00 | 0.00 | 0.00 | 40 | 1007.7 |
| 20260504195549 | 23 | 191 | 12.9 | 33.8 | 0.00 | 0.00 | 0.00 | 39 | 1007.7 |
| 20260504195507 | 23 | 154 | 11.3 | 32.2 | 0.00 | 0.00 | 0.00 | 41 | 1007.7 |
| 20260504195500 | 23 | 133 | 12.9 | 33.8 | 0.00 | 0.00 | 0.00 | 39 | 1007.7 |
| 20260504195243 | 23 | 148 | 11.3 | 32.2 | 0.00 | 0.00 | 0.00 | 40 | 1007.7 |